                ,  0.290,  0.386,  0.483,  0.580,  0.676,  0.773,  0.869,  0.966,  1.063,  1.159,  1.256,  1.352,  1.449,  1.545,  1.642,  1.739,  1.835,  1.932,  2.028,  2.125,  2.222,  2.318,  2.415,  2.511,  2.608,  2.705,  2.801,  2.898,  2.994,  3.091,  3.188,  3.284,  3.381,  3.477,  3.574,  3.671,  3.767,  3.864,  3.960,  4.057,  4.153,  4.250,  4.347,  4.443,  4.540,  4.636,  4.733,  4.830,  4.926,  5.023,  5.119,  5.216,  5.313,  5.409,  5.506,  5.602,  5.699,  5.796
2000/11/14 00:00,  999.0,    3.3,    4.3,    5.8,    2.9,  999.0,    6.7,    5.1,    5.6,    4.7,    5.2,    5.3,    7.4,   10.1,    8.9,    5.4,  999.0,  999.0,  999.0,  999.0,  999.0,  999.0,  999.0,  999.0,  999.0,  999.0,  999.0,  999.0,  999.0,  999.0,  999.0,  999.0,  999.0,  999.0,  999.0,  999.0,  999.0,  999.0,  999.0,  999.0,  999.0,    1.0,    0.4,    0.5,    0.4,    0.6,    0.2,   -0.1,    0.7,    0.0,    0.5,    1.0,    1.0,    0.9,    0.5,    0.5,    0.8,    0.9
2000/11/14 00:10,  999.0,    3.0,    4.0,    4.7,    6.4,    6.5,    6.6,    5.4,    5.4,    5.4,    6.2,    5.9,    7.0,    7.2,    4.5,  999.0,    4.8,    5.9,    4.2,    2.9,    2.8,    3.4,    2.4,    3.5,    5.0,  999.0,    6.7,    7.4,  999.0,  999.0,  999.0,  999.0,  999.0,  999.0,  999.0,  999.0,  999.0,  999.0,  999.0,  999.0,  999.0,  999.0,  999.0,  999.0,  999.0,  999.0,  999.0,  999.0,  999.0,  999.0,  999.0,  999.0,  999.0,  999.0,  999.0,  999.0,  999.0,  999.0
2000/11/14 00:20,  999.0,    3.2,    3.9,    4.4,    5.8,    5.9,    8.3,    7.1,    5.0,    6.8,    7.1,    5.4,    6.5,  999.0,    3.7,  999.0,    5.7,    5.5,    4.9,    5.0,  999.0,    3.1,    3.5,    2.1,  999.0,  999.0,  999.0,   14.6,  999.0,  999.0,  999.0,  999.0,  999.0,  999.0,  999.0,  999.0,  999.0,  999.0,  999.0,  999.0,  999.0,  999.0,  999.0,  999.0,  999.0,  999.0,  999.0,  999.0,  999.0,  999.0,  999.0,  999.0,  999.0,  999.0,  999.0,  999.0,  999.0,  999.0
2000/11/14 00:30,  999.0,    4.2,    4.7,    5.9,    6.7,    6.9,    5.4,    7.1,    6.3,    6.8,    6.5,    5.7,    6.3,    6.3,    6.5,  999.0,    4.9,  999.0,  999.0,  999.0,    7.2,    6.7,  999.0,  999.0,  999.0,  999.0,  999.0,  999.0,  999.0,   10.6,  999.0,  999.0,  999.0,  999.0,  999.0,  999.0,  999.0,  999.0,  999.0,  999.0,  999.0,  999.0,  999.0,  999.0,  999.0,  999.0,  999.0,  999.0,  999.0,  999.0,  999.0,  999.0,  999.0,  999.0,  999.0,  999.0,  999.0,  999.0
2000/11/14 00:40,  999.0,  999.0,    2.9,    5.3,    6.2,    7.0,    6.7,    2.8,  999.0,    4.4,    4.9,    4.3,    6.1,    6.7,    5.1,    5.1,  999.0,  999.0,  999.0,    2.8,  999.0,    2.4,  999.0,  999.0,  999.0,  999.0,  999.0,  999.0,  999.0,  999.0,  999.0,  999.0,  999.0,  999.0,  999.0,  999.0,  999.0,  999.0,  999.0,  999.0,  999.0,  999.0,  999.0,  999.0,  999.0,  999.0,  999.0,  999.0,  999.0,  999.0,  999.0,  999.0,  999.0,  999.0,  999.0,  999.0,  999.0,  999.0
2000/11/14 00:50,  999.0,    1.7,    2.4,    4.6,    5.6,    6.4,    8.0,    7.2,    5.1,    5.7,    4.5,    6.0,    5.8,    6.5,    6.3,  999.0,  999.0,  999.0,  999.0,  999.0,  999.0,  999.0,  999.0,  999.0,  999.0,  999.0,  999.0,  999.0,  999.0,  999.0,  999.0,  999.0,  999.0,  999.0,  999.0,  999.0,  999.0,  999.0,  999.0,  999.0,   34.4,   35.5,  999.0,  999.0,   38.9,   40.0,  999.0,   41.5,   41.4,  999.0,  999.0,  999.0,  999.0,  999.0,  999.0,  999.0,  999.0,  999.0
2000/11/14 01:00,  999.0,    2.6,    3.6,    6.5,    5.8,    6.1,    5.9,    6.8,    5.6,    5.0,    5.4,    5.2,    5.4,    5.2,  999.0,  999.0,    8.0,    8.7,    5.1,   14.9,  999.0,  999.0,  999.0,  999.0,  999.0,  999.0,   12.6,  999.0,  999.0,  999.0,  999.0,  999.0,   24.8,   31.9,   30.0,   33.8,   34.9,   30.7,   36.5,   35.4,   36.5,   35.4,   38.9,   41.8,   39.2,   40.6,   42.0,   41.7,   41.2,  999.0,  999.0,   41.7,   41.6,  999.0,   41.0,   42.0,   41.7,   42.1
2000/11/14 01:10,  999.0,    4.2,    3.6,    6.0,    6.7,    6.7,    5.5,    6.8,    6.5,    5.4,    4.3,    4.1,    5.0,    4.9,    5.4,    5.7,    2.1,  999.0,  999.0,  999.0,    4.9,  999.0,  999.0,  999.0,    4.6,  999.0,    6.5,  999.0,  999.0,  999.0,  999.0,  999.0,  999.0,   27.0,  999.0,  999.0,  999.0,   30.5,  999.0,   32.6,   34.6,   38.7,   37.6,  999.0,  999.0,   39.4,  999.0,   40.0,   39.5,  999.0,   41.8,   42.0,   41.5,  999.0,  999.0,   41.2,   42.2,   40.9
2000/11/14 01:20,  999.0,    4.1,    5.3,    6.8,    5.9,    6.9,    6.1,    5.6,    4.8,    4.7,    6.3,    4.4,    6.2,    9.4,  999.0,    7.5,    9.0,    9.5,   10.2,  999.0,  999.0,  999.0,  999.0,   11.7,  999.0,  999.0,  999.0,  999.0,   12.9,  999.0,  999.0,   30.9,  999.0,   34.6,   32.9,  999.0,   34.6,   40.0,   35.9,  999.0,   37.7,   42.1,   41.7,   41.1,  999.0,  999.0,  999.0,  999.0,   41.4,   42.1,   41.6,  999.0,   41.2,  999.0,   41.8,   41.2,   41.5,   41.5
2000/11/14 01:30,  999.0,    4.2,    6.3,    6.3,    5.2,    6.4,    6.3,    6.1,    5.9,    5.6,    4.6,    3.9,    4.9,    6.9,    7.0,  999.0,    5.8,  999.0,  999.0,    5.1,    5.5,  999.0,  999.0,  999.0,  999.0,  999.0,   13.5,   11.7,   12.8,  999.0,  999.0,   25.8,  999.0,   28.0,  999.0,  999.0,   34.0,   37.5,   33.1,   39.7,  999.0,   39.1,   37.2,  999.0,   39.1,   40.7,   41.4,  999.0,   41.4,   41.8,  999.0,  999.0,   41.6,  999.0,   41.8,  999.0,   41.7,   41.6
2000/11/14 01:40,  999.0,    0.9,    3.6,    5.1,    6.0,    7.6,    9.9,    5.2,    5.7,    4.5,    4.4,    4.1,    4.4,    4.8,    4.8,  999.0,  999.0,  999.0,    5.6,    9.1,   12.0,  999.0,  999.0,    8.8,  999.0,   10.5,  999.0,  999.0,  999.0,  999.0,  999.0,   31.2,   32.3,   30.7,  999.0,   34.9,   37.7,   39.4,   39.5,   40.6,   40.9,   42.2,   41.4,   41.1,   42.2,   41.3,   41.9,   42.1,   41.8,   41.6,   41.2,   41.0,   41.9,   42.2,   42.7,  999.0,   41.9,   41.8
2000/11/14 01:50,  999.0,    8.4,    5.0,    5.4,    5.9,    5.3,    6.2,    6.4,    5.2,    3.7,    3.4,    4.1,    4.1,    4.2,    3.9,    8.9,  999.0,  999.0,    8.5,  999.0,   14.9,  999.0,  999.0,  999.0,  999.0,   20.3,   22.3,  999.0,  999.0,  999.0,  999.0,   31.0,   30.0,   31.2,   36.7,   36.4,   39.1,   38.4,   41.3,   41.8,   41.6,   42.0,   41.9,   41.7,   41.7,   41.3,   41.8,   41.4,  999.0,  999.0,   42.3,   42.2,   41.7,   41.2,   41.5,   42.4,   42.0,  999.0
2000/11/14 02:00,  999.0,    3.6,    5.8,    4.9,    6.0,    6.6,    5.8,    5.6,    6.1,    5.0,    4.2,    3.8,    4.7,    3.4,    3.2,  999.0,  999.0,  999.0,  999.0,    8.5,  999.0,  999.0,  999.0,  999.0,  999.0,   26.3,   29.9,  999.0,   30.8,   30.9,   32.1,   33.6,   35.8,   35.3,  999.0,   35.0,   38.7,   40.0,  999.0,   40.0,   41.0,   41.3,   41.2,   41.9,   42.1,  999.0,   42.2,  999.0,   41.8,   41.8,   42.2,   42.2,   41.2,  999.0,   42.0,   41.6,   42.7,   41.8
2000/11/14 02:10,  999.0,  999.0,    3.7,    5.7,    6.2,    5.3,    4.6,    4.3,    4.6,    4.2,    3.9,    5.4,    6.1,    5.0,  999.0,  999.0,  999.0,    6.2,    7.0,    5.5,  999.0,  999.0,  999.0,  999.0,  999.0,  999.0,  999.0,   24.1,   31.5,   32.7,   37.5,   30.7,   39.1,   40.5,   41.0,   39.9,   40.7,   41.5,   41.9,   42.8,  999.0,   41.7,   42.0,   42.0,   41.8,   41.6,   41.7,   41.7,   41.5,   42.2,   41.6,   42.0,   41.6,   41.6,   42.4,   40.1,   41.5,   41.6
2000/11/14 02:20,  999.0,    3.6,    2.6,    5.5,    5.7,    6.4,    4.5,    4.9,    5.0,    4.8,    3.9,    4.2,    4.8,    5.5,    5.0,    6.2,  999.0,    7.0,    6.7,  999.0,  999.0,  999.0,  999.0,  999.0,  999.0,  999.0,  999.0,  999.0,  999.0,  999.0,  999.0,   40.8,   41.6,  999.0,  999.0,   41.4,   41.4,   41.0,   41.7,   42.1,   42.3,   41.6,  999.0,  999.0,   42.1,   41.7,   41.5,  999.0,   42.0,   41.3,  999.0,   42.1,   42.1,  999.0,   41.2,   41.5,   41.9,   41.9
2000/11/14 02:30,  999.0,  999.0,    4.3,    5.0,    5.2,    5.6,    5.6,    4.3,    4.2,    4.6,    6.0,    3.3,    3.1,    3.8,    5.3,  999.0,    5.2,  999.0,  999.0,    7.3,  999.0,   11.2,   11.5,  999.0,  999.0,   15.9,  999.0,   34.3,  999.0,  999.0,   42.1,   41.7,   41.6,   41.5,   41.5,   41.3,   42.0,   41.9,   41.9,   42.0,   41.9,  999.0,   41.9,   41.9,   41.9,   42.6,   41.3,   41.6,   41.7,   41.7,   41.9,   42.0,   41.6,   41.0,   41.3,   41.5,   41.2,   41.5
2000/11/14 02:40,  999.0,    2.3,    2.9,    4.2,    6.2,    5.9,    5.5,    4.3,    4.1,    3.6,    4.9,    5.1,    2.9,    2.4,  999.0,  999.0,  999.0,  999.0,  999.0,  999.0,   11.0,   11.5,   16.0,  999.0,   14.6,   19.2,  999.0,  999.0,  999.0,  999.0,   34.3,   41.1,   37.4,  999.0,   41.6,   39.4,   41.6,  999.0,   41.3,  999.0,   42.1,   41.7,   42.0,   41.6,  999.0,   41.2,   41.5,   41.9,   41.8,   41.3,   40.6,   41.8,   41.5,   41.6,   41.5,   41.4,   42.5,   41.8
2000/11/14 02:50,  999.0,    0.1,    2.6,    6.6,    4.1,    5.5,    5.6,    4.3,    3.7,    4.3,    7.6,    5.0,    3.8,    4.8,    5.3,    7.1,  999.0,  999.0,  999.0,    9.7,  999.0,    9.7,  999.0,   12.0,   13.5,   14.5,  999.0,   21.2,  999.0,  999.0,  999.0,  999.0,  999.0,  999.0,   40.6,   42.2,   41.6,   41.7,   41.9,   41.8,   42.0,   41.4,   41.9,   41.3,   41.1,   41.7,   41.4,   41.7,   41.7,   41.7,   41.9,   41.9,   41.8,   41.7,   41.6,   41.5,   41.8,   41.7
2000/11/14 03:00,  999.0,    2.1,    2.0,    2.2,    5.1,    5.5,    6.1,    4.8,    4.9,    4.8,    4.8,    5.8,  999.0,  999.0,    5.3,    8.0,  999.0,  999.0,  999.0,  999.0,   10.8,  999.0,   11.6,   13.1,  999.0,  999.0,  999.0,  999.0,  999.0,  999.0,  999.0,  999.0,  999.0,  999.0,   40.4,  999.0,  999.0,  999.0,   42.1,   41.4,   41.7,  999.0,   41.4,   41.8,   42.4,   42.1,  999.0,   42.1,   41.4,   41.6,   41.7,   41.9,   41.7,   41.9,   42.0,   42.1,   41.8,   41.1
2000/11/14 03:10,  999.0,   -0.2,    2.1,    2.3,    5.2,    5.2,    4.6,    4.9,    5.4,    4.9,    4.2,    5.4,  999.0,  999.0,  999.0,    4.2,    5.3,  999.0,    6.4,  999.0,  999.0,  999.0,  999.0,   12.4,  999.0,  999.0,  999.0,  999.0,  999.0,  999.0,  999.0,  999.0,  999.0,  999.0,   39.5,  999.0,  999.0,  999.0,   41.5,   41.0,  999.0,   42.3,   42.0,   42.2,   41.9,   41.6,   41.5,   41.4,   40.7,   41.5,   41.7,   41.9,   41.3,   41.4,   41.3,   41.5,   41.5,   41.9
2000/11/14 03:20,  999.0,  999.0,  999.0,    3.4,  999.0,    5.1,    6.0,    5.6,    5.5,    4.7,    4.8,    4.9,  999.0,  999.0,  999.0,    6.2,    5.7,  999.0,    8.3,  999.0,   10.6,  999.0,  999.0,  999.0,  999.0,  999.0,  999.0,  999.0,  999.0,  999.0,  999.0,  999.0,  999.0,  999.0,  999.0,   41.2,  999.0,  999.0,   41.3,   41.3,   41.1,   41.8,   41.9,   42.1,  999.0,   42.1,   41.8,   41.5,   42.2,   41.7,   41.9,   42.7,  999.0,   41.9,  999.0,  999.0,   41.6,   41.3
2000/11/14 03:30,  999.0,  999.0,    0.2,    1.9,   10.8,    6.7,    4.3,    5.4,    6.3,    4.6,    4.1,    3.8,  999.0,  999.0,    6.0,    9.0,  999.0,  999.0,    6.8,  999.0,   13.6,  999.0,  999.0,  999.0,  999.0,  999.0,  999.0,  999.0,  999.0,  999.0,  999.0,  999.0,  999.0,  999.0,   41.5,   41.1,  999.0,   41.7,   41.9,   41.8,   42.1,   41.9,   41.9,   41.4,   41.6,   41.3,   42.1,   41.8,   41.4,   41.9,   41.5,   41.6,   41.3,   41.7,   41.3,   41.5,   41.6,  999.0
2000/11/14 03:40,  999.0,  999.0,    1.0,    3.2,    7.1,    5.6,    6.3,    5.3,    4.1,    4.4,    5.1,    3.4,    5.5,    4.1,    6.6,    4.4,    9.3,    6.6,  999.0,   10.9,   11.8,  999.0,  999.0,  999.0,  999.0,  999.0,  999.0,  999.0,  999.0,  999.0,  999.0,  999.0,  999.0,   40.5,   41.5,   41.0,   41.3,   42.1,   41.7,   41.8,   42.7,   41.8,   42.0,   42.1,   41.9,   41.8,   41.9,   41.8,   42.0,   41.9,   41.8,   42.4,   41.6,   41.6,   42.0,   42.0,   42.2,   41.9
2000/11/14 03:50,  999.0,    2.6,    2.0,    3.5,    6.2,    6.7,    7.8,    5.1,    5.1,    5.2,    6.2,  999.0,    3.4,    3.9,    5.3,    4.3,    6.6,    4.1,   11.0,  999.0,  999.0,  999.0,  999.0,  999.0,  999.0,  999.0,  999.0,  999.0,  999.0,  999.0,  999.0,  999.0,  999.0,   41.4,   42.1,   41.6,   41.7,   41.9,   41.7,   41.8,   41.5,   41.8,   41.5,   41.5,   41.5,   41.2,   41.9,  999.0,   41.5,  999.0,   41.4,   41.4,   41.3,   41.3,   41.7,   41.2,  999.0,   41.5
2000/11/14 04:00,  999.0,  999.0,    3.0,    4.5,    5.8,    6.9,    6.5,    5.2,    5.2,    5.1,    5.3,    4.5,  999.0,    5.9,    8.6,   10.1,  999.0,  999.0,  999.0,  999.0,  999.0,  999.0,  999.0,  999.0,  999.0,  999.0,  999.0,  999.0,   36.8,  999.0,   38.9,   41.1,   41.8,   41.5,  999.0,   41.4,  999.0,   42.1,   41.8,  999.0,   41.6,  999.0,   41.8,   42.2,   41.9,   41.1,   40.6,   41.8,   41.7,   42.0,   41.4,  999.0,  999.0,  999.0,   41.5,   42.2,   42.1,  999.0
2000/11/14 04:10,  999.0,  999.0,  999.0,    6.7,    7.7,    3.4,    5.2,    5.2,    5.0,    4.1,  999.0,    5.7,    5.2,    5.7,  999.0,    6.9,  999.0,  999.0,  999.0,  999.0,  999.0,  999.0,  999.0,  999.0,  999.0,  999.0,   36.4,  999.0,   38.9,   39.7,  999.0,   41.9,   42.3,   41.8,   41.6,   41.2,   41.3,  999.0,   41.8,  999.0,  999.0,   41.5,   40.7,   41.0,   41.3,  999.0,  999.0,  999.0,  999.0,  999.0,  999.0,   42.0,   41.2,  999.0,  999.0,   41.3,   41.8,  999.0
2000/11/14 04:20,  999.0,   -1.4,    3.1,    6.4,  999.0,    5.6,    5.8,    5.0,    5.7,    5.0,    4.2,    5.4,    3.3,    4.6,   12.0,   10.5,    8.6,    9.7,  999.0,  999.0,  999.0,  999.0,  999.0,  999.0,  999.0,  999.0,  999.0,  999.0,  999.0,  999.0,  999.0,  999.0,  999.0,  999.0,  999.0,  999.0,   41.6,  999.0,   41.6,  999.0,   41.3,  999.0,  999.0,  999.0,  999.0,   42.0,  999.0,  999.0,  999.0,  999.0,  999.0,   41.9,  999.0,   42.7,  999.0,  999.0,  999.0,  999.0
2000/11/14 04:30,  999.0,  999.0,  999.0,  999.0,    8.6,    5.1,    4.5,    5.0,    4.9,    3.4,    5.9,  999.0,  999.0,  999.0,    9.2,    9.3,    5.5,   11.3,    4.6,  999.0,  999.0,  999.0,  999.0,  999.0,  999.0,  999.0,  999.0,  999.0,  999.0,  999.0,  999.0,  999.0,  999.0,   42.0,  999.0,   42.0,  999.0,  999.0,  999.0,  999.0,  999.0,   41.2,  999.0,   41.6,  999.0,   41.2,  999.0,  999.0,   42.2,  999.0,  999.0,   41.9,  999.0,   41.7,  999.0,  999.0,   41.2,   41.4
2000/11/14 04:40,  999.0,  999.0,  999.0,  999.0,    6.9,    6.8,    5.7,    6.0,    6.1,    6.2,    5.5,  999.0,  999.0,  999.0,    8.9,    6.3,    6.7,    7.5,    9.0,    6.3,    7.2,  999.0,  999.0,  999.0,  999.0,  999.0,  999.0,  999.0,  999.0,  999.0,  999.0,  999.0,   41.1,  999.0,   42.2,  999.0,  999.0,  999.0,  999.0,   41.3,  999.0,  999.0,  999.0,  999.0,   41.4,  999.0,   41.8,   41.6,  999.0,  999.0,  999.0,  999.0,  999.0,   41.7,  999.0,  999.0,  999.0,  999.0
2000/11/14 04:50,  999.0,    2.9,    5.3,    7.5,    7.3,    7.6,    7.2,    7.8,    5.9,    5.7,    5.1,    2.6,    3.0,  999.0,  999.0,  999.0,  999.0,  999.0,    5.4,  999.0,  999.0,  999.0,  999.0,  999.0,  999.0,  999.0,  999.0,  999.0,  999.0,  999.0,  999.0,  999.0,  999.0,   33.8,   35.0,   36.3,  999.0,   36.4,   38.0,   40.4,  999.0,  999.0,   40.7,   42.7,  999.0,   41.8,   41.8,   41.7,   41.8,  999.0,  999.0,   40.9,   41.6,   40.9,   41.4,  999.0,  999.0,  999.0
2000/11/14 05:00,  999.0,    1.9,    4.5,    5.9,    6.8,    6.9,    6.9,    8.5,    6.1,    5.2,    5.7,    3.9,  999.0,    6.8,    5.4,  999.0,  999.0,    8.5,  999.0,  999.0,  999.0,  999.0,  999.0,  999.0,  999.0,  999.0,  999.0,  999.0,  999.0,  999.0,  999.0,   33.5,   36.3,   35.8,   35.5,   37.1,   37.9,   38.7,  999.0,   39.6,   41.1,   41.4,   40.9,   41.6,   41.8,   41.4,   41.6,   41.4,   41.9,   42.2,   42.1,   41.8,   42.1,   41.7,   41.9,  999.0,   41.2,   41.4
2000/11/14 05:10,  999.0,    1.6,    3.3,    6.5,    7.5,    7.0,    6.7,    8.0,    6.9,    5.1,  999.0,  999.0,    5.9,    6.4,    5.6,  999.0,  999.0,    6.7,    8.3,  999.0,  999.0,  999.0,  999.0,  999.0,  999.0,  999.0,  999.0,  999.0,  999.0,  999.0,   33.9,  999.0,  999.0,  999.0,   40.7,   40.8,   41.0,   42.1,   41.5,   42.1,   41.9,   41.7,   41.3,   41.8,  999.0,   41.9,   42.1,   41.7,   42.5,   41.9,   41.5,   41.3,   41.4,   41.6,  999.0,   42.2,   42.3,   42.1
2000/11/14 05:20,  999.0,    1.0,    3.1,    5.9,    6.2,    7.0,    6.4,    6.9,  999.0,    1.2,    4.5,    5.2,  999.0,  999.0,  999.0,    5.0,    5.1,  999.0,    6.8,    7.5,  999.0,  999.0,  999.0,  999.0,  999.0,  999.0,  999.0,  999.0,  999.0,  999.0,  999.0,   41.0,   41.9,   42.4,   42.5,   42.1,   41.6,  999.0,   41.4,   41.7,   42.2,   42.4,   41.7,   41.5,   42.3,   42.1,   41.6,   41.2,   41.4,  999.0,   42.2,   41.8,   41.7,   42.1,  999.0,   41.6,   41.8,  999.0
2000/11/14 05:30,  999.0,  999.0,    3.9,    6.1,    6.5,    6.3,    5.9,    7.4,  999.0,  999.0,  999.0,    5.9,    6.1,    5.0,    5.9,  999.0,  999.0,  999.0,    7.7,   11.8,  999.0,  999.0,  999.0,  999.0,  999.0,  999.0,  999.0,  999.0,  999.0,   40.3,  999.0,   40.0,   42.4,   41.9,   41.7,   41.9,   42.0,   41.7,   41.9,   41.9,   41.4,   41.7,   40.7,   40.9,   41.8,   41.3,   40.8,   41.8,  999.0,   41.5,   41.5,   41.7,   42.0,   41.6,   41.3,   41.8,   41.6,   41.5
2000/11/14 05:40,  999.0,  999.0,  999.0,    4.5,    6.9,    6.6,    6.2,    6.8,    8.9,    3.6,    5.9,    4.6,    5.6,    5.8,  999.0,  999.0,  999.0,  999.0,  999.0,   10.3,  999.0,  999.0,  999.0,  999.0,  999.0,  999.0,  999.0,  999.0,  999.0,   38.3,  999.0,   38.5,   41.1,  999.0,  999.0,   42.0,   42.0,   42.1,   41.7,   41.0,   42.6,   42.1,   41.5,   41.7,  999.0,   41.9,   41.5,   41.8,   42.5,   42.0,   41.9,   42.0,  999.0,   41.7,   41.9,   41.6,   41.8,   40.4
2000/11/14 05:50,  999.0,  999.0,  999.0,    4.7,    5.7,    7.0,    6.4,    6.8,    8.0,    8.0,    7.8,    6.2,    5.4,    3.9,    4.6,    3.6,  999.0,  999.0,  999.0,  999.0,   11.1,  999.0,  999.0,  999.0,  999.0,  999.0,  999.0,  999.0,  999.0,   36.2,   37.3,   37.9,   39.3,   40.6,   40.9,   41.6,   41.5,  999.0,   41.3,   42.2,   41.9,   41.9,   41.9,   41.8,   42.0,   41.5,   42.9,   42.4,   42.1,   41.5,  999.0,   41.2,   42.2,   41.2,   41.9,   42.1,   41.1,   41.5
2000/11/14 06:00,  999.0,  999.0,  999.0,    2.2,    6.4,    7.3,    7.5,    6.6,    7.0,    6.2,    6.2,    5.9,    4.6,    4.3,    4.1,    3.8,  999.0,  999.0,  999.0,  999.0,  999.0,  999.0,  999.0,  999.0,  999.0,  999.0,   32.0,   32.2,   32.1,  999.0,  999.0,   36.3,   39.3,   41.7,   39.8,   41.4,   41.5,   41.6,   41.4,   42.0,   41.9,   42.0,   41.8,  999.0,   42.3,   42.1,   41.9,   41.6,   41.7,   41.7,   42.5,   42.6,  999.0,   41.6,   41.3,   41.5,   41.6,   41.7
2000/11/14 06:10,  999.0,  999.0,  999.0,  999.0,    7.0,    6.5,    6.0,    5.9,    5.9,    6.8,    6.9,    5.3,    5.3,    4.4,    4.0,    3.7,  999.0,  999.0,    4.7,  999.0,  999.0,    3.5,  999.0,  999.0,  999.0,  999.0,  999.0,  999.0,  999.0,  999.0,   33.1,   34.5,  999.0,   37.1,   39.1,   41.3,   41.4,  999.0,   41.7,   41.5,   41.8,   42.9,   41.7,   41.4,   41.4,   41.7,   41.6,  999.0,   42.1,   41.1,   41.4,   42.0,   42.7,  999.0,   42.0,   41.0,   41.8,   42.9
2000/11/14 06:20,  999.0,    2.4,    1.1,    3.7,    5.7,    7.1,    5.7,    6.8,    7.0,    7.1,    7.5,    4.7,    4.5,    3.4,    3.5,    4.2,    4.5,    5.2,    3.8,    4.6,    8.8,    9.8,  999.0,  999.0,  999.0,  999.0,  999.0,  999.0,  999.0,  999.0,  999.0,   37.0,   37.9,   39.1,   41.3,   42.0,   42.0,   41.8,   42.1,   42.4,   42.4,   41.8,   42.2,   40.9,   41.9,   42.3,   42.0,   42.5,   43.1,   42.2,   41.6,   42.3,   42.0,   42.4,   41.9,   42.0,   42.4,  999.0
2000/11/14 06:30,  999.0,  999.0,  999.0,    4.9,    8.3,    6.4,    6.1,    5.9,    6.9,    7.6,    6.1,    9.3,    3.4,    3.5,    3.1,    2.4,    2.7,    3.1,  999.0,  999.0,  999.0,    8.1,  999.0,  999.0,  999.0,  999.0,  999.0,  999.0,  999.0,  999.0,  999.0,   34.9,  999.0,   38.8,   38.9,   37.7,   39.4,  999.0,   42.1,   40.8,  999.0,   42.4,   41.6,   42.1,   42.5,   42.4,   41.9,   42.0,   41.9,   41.5,   40.9,   42.1,   41.6,   41.9,   42.5,  999.0,   42.7,   42.2
2000/11/14 06:40,  999.0,   -0.3,    3.2,    4.4,    4.0,    6.2,    7.0,    6.3,    6.8,    8.0,    6.1,    5.7,    4.5,    3.4,    3.2,    0.7,    2.9,    4.2,  999.0,  999.0,  999.0,  999.0,  999.0,  999.0,  999.0,  999.0,  999.0,  999.0,   32.0,  999.0,   33.7,   34.8,   35.8,   36.8,   36.7,   39.7,   39.5,   39.2,   40.9,   41.5,   42.0,   41.9,   41.5,   42.4,   42.3,   42.1,   42.6,   42.2,   41.9,   41.7,   41.7,  999.0,   41.5,   41.4,   42.1,   41.8,   42.2,  999.0
2000/11/14 06:50,  999.0,   -0.8,    2.0,    4.2,    3.5,    6.7,    6.0,    7.2,    5.7,    4.8,    6.4,    3.4,    3.1,    3.2,    3.5,    2.6,    3.5,  999.0,  999.0,  999.0,  999.0,    5.9,  999.0,  999.0,  999.0,  999.0,  999.0,  999.0,  999.0,  999.0,   36.9,   38.4,   38.6,   39.9,   40.3,   41.2,   41.6,   41.8,   42.2,   41.7,   41.6,   41.9,   41.8,   41.9,   41.6,   41.9,   41.9,   42.3,   41.9,   41.6,   41.4,  999.0,   41.7,   41.9,   41.6,   42.0,   41.6,   41.2
2000/11/14 07:00,  999.0,  999.0,    0.4,    2.8,  999.0,    4.8,    5.3,    6.8,    6.3,    5.9,    6.9,    5.2,    3.4,    3.2,    3.4,  999.0,  999.0,  999.0,  999.0,  999.0,  999.0,  999.0,  999.0,  999.0,  999.0,   32.7,   34.0,   34.4,   36.1,   36.9,   37.9,   38.5,   39.8,   41.8,  999.0,   41.8,   41.7,   42.1,   41.6,   42.0,   42.1,   41.9,  999.0,   42.4,   41.6,   41.8,   41.4,   41.5,   41.8,   41.9,   41.8,   41.6,   41.2,   41.6,   41.6,  999.0,   41.5,   41.8
2000/11/14 07:10,  999.0,    2.3,    0.6,    1.4,    7.9,    3.5,    5.7,    6.7,    3.9,    4.3,    4.9,    3.2,    2.3,    2.6,  999.0,  999.0,  999.0,  999.0,  999.0,  999.0,  999.0,  999.0,  999.0,  999.0,  999.0,   33.1,   33.4,   36.7,   35.9,   40.5,   40.4,  999.0,   42.0,   41.7,   41.7,   42.3,   42.1,   41.8,   42.1,   42.2,   42.1,  999.0,   41.7,   42.0,   41.7,  999.0,  999.0,   42.1,   41.8,   42.5,   42.4,   41.3,   41.2,   41.5,   41.7,  999.0,   41.8,   42.1
2000/11/14 07:20,  999.0,    0.8,   -0.1,    4.5,    6.7,    5.3,    5.5,    4.4,    3.3,    4.1,    3.7,    4.7,    4.0,  999.0,    4.7,    8.2,  999.0,  999.0,  999.0,   12.7,   14.6,  999.0,  999.0,  999.0,  999.0,  999.0,  999.0,  999.0,   38.1,   38.4,  999.0,   41.0,   41.4,   42.0,   41.8,   42.0,   41.6,   42.0,   41.5,   41.6,   41.7,   42.0,   41.6,   40.7,   41.6,   42.2,   42.2,   41.4,   41.4,   41.5,   42.2,   41.8,   41.6,   42.2,   41.8,   42.1,   41.9,   41.8
2000/11/14 07:30,  999.0,   -0.6,   -2.6,    0.9,    8.0,    5.3,    4.2,    5.0,    4.2,    3.0,    2.7,    3.0,    4.0,    3.0,  999.0,  999.0,  999.0,  999.0,  999.0,   10.2,  999.0,  999.0,  999.0,  999.0,  999.0,  999.0,   37.7,  999.0,   40.3,   41.6,  999.0,   42.7,   42.3,   41.5,   41.3,   41.9,   42.1,  999.0,   41.7,   42.0,   41.9,   42.0,  999.0,   42.0,   42.2,   41.8,   41.9,   41.3,   41.9,   42.3,   41.8,   41.8,   42.0,   42.0,  999.0,  999.0,   42.5,   42.5
2000/11/14 07:40,  999.0,  999.0,    0.7,   -0.2,    7.3,    3.7,    4.4,    5.1,    5.2,    4.1,    3.1,    5.6,    2.5,  999.0,  999.0,  999.0,  999.0,  999.0,    2.1,  999.0,  999.0,  999.0,  999.0,  999.0,  999.0,   35.4,   36.2,   41.4,   32.4,   38.4,   38.5,   42.0,   40.1,   39.9,   41.8,   41.8,   41.8,   42.0,   41.6,   42.3,   42.3,   41.7,   42.2,   41.7,   41.6,  999.0,   42.0,   41.5,   41.6,   42.5,   42.1,   41.8,   42.1,   41.9,   41.2,  999.0,   41.5,   42.1
2000/11/14 07:50,  999.0,   -0.2,   -4.2,  999.0,    3.4,    3.8,    3.2,    4.0,    6.0,    5.4,    2.2,    2.3,  999.0,  999.0,  999.0,  999.0,  999.0,  999.0,    1.7,    2.1,  999.0,  999.0,  999.0,   29.2,   28.8,   30.9,  999.0,  999.0,   35.7,  999.0,   38.0,   39.6,   38.9,   40.8,   41.9,   42.0,  999.0,   42.1,  999.0,  999.0,   41.8,  999.0,   42.1,  999.0,  999.0,  999.0,   41.7,  999.0,  999.0,   42.4,  999.0,  999.0,   42.1,  999.0,  999.0,   42.3,  999.0,   41.9
2000/11/14 08:00,  999.0,   -0.4,   -0.0,    2.4,    5.4,    3.5,    4.1,    4.7,    7.5,    5.8,    1.9,  999.0,  999.0,  999.0,  999.0,  999.0,  999.0,  999.0,  999.0,  999.0,  999.0,   26.0,   27.3,   29.9,   30.2,   31.9,   33.2,   33.9,   35.6,   37.1,  999.0,   40.6,   41.2,   41.6,   41.6,   42.3,   41.7,   42.4,   41.6,   41.9,   41.7,   41.7,   41.3,   41.2,   42.2,   42.2,   41.9,   42.0,   41.9,   41.7,   41.2,   41.2,   41.8,   41.6,   41.6,   41.3,   41.8,   41.7
2000/11/14 08:10,  999.0,   -0.9,   -0.8,    5.2,    6.0,    4.9,    4.9,    5.8,    5.9,    5.3,  999.0,  999.0,  999.0,  999.0,  999.0,  999.0,  999.0,  999.0,  999.0,  999.0,   22.6,   23.7,   25.6,   26.9,   28.5,   31.1,   32.2,   34.0,   35.3,  999.0,   38.2,   39.8,   40.9,   42.0,   42.0,   42.3,   42.0,   42.3,   41.7,   41.8,   41.5,   41.6,   41.5,   41.9,   41.3,   41.4,   42.0,   41.9,   41.7,   41.5,   41.9,   42.1,   42.1,   41.7,   41.7,   41.9,   41.9,   42.2
2000/11/14 08:20,  999.0,  999.0,  999.0,    3.1,    3.9,    4.4,    4.3,    4.7,    3.9,    2.8,  999.0,    3.6,    4.1,  999.0,  999.0,  999.0,  999.0,  999.0,  999.0,  999.0,  999.0,   26.8,   31.0,   32.5,   31.5,   33.0,  999.0,   34.5,  999.0,   35.9,   38.1,   39.0,   39.6,   40.8,   41.8,   41.7,   42.1,   42.1,   41.8,   42.0,   41.9,   41.9,   42.2,   41.8,   41.7,   42.1,   41.6,   41.8,   42.0,   41.5,   41.8,   42.1,   42.6,   42.1,   41.6,   41.9,   42.0,   42.3
2000/11/14 08:30,  999.0,  999.0,   -0.1,    1.6,    3.9,    4.0,    5.8,    5.5,    4.7,    3.3,    4.6,    4.5,    4.2,  999.0,  999.0,  999.0,  999.0,  999.0,   27.3,  999.0,  999.0,   31.1,   33.8,   33.9,   33.1,   36.0,   37.5,  999.0,   36.7,   39.7,   40.6,   39.9,   41.6,   42.1,   41.9,   41.8,   41.9,   41.6,   42.2,   41.8,   41.5,   41.9,   41.7,   41.6,   41.9,   41.7,   42.0,   41.9,   42.1,   42.1,   42.2,   41.6,   42.1,   41.3,   41.6,   41.6,   41.8,   41.2
2000/11/14 08:40,  999.0,  999.0,  999.0,    1.9,    1.9,    2.3,    3.5,    4.6,    4.7,    4.2,    2.2,  999.0,    3.3,    3.4,  999.0,  999.0,  999.0,   25.5,   25.2,   26.1,   27.9,  999.0,   31.4,   32.9,   32.8,   34.9,   35.0,   37.3,   37.3,   37.7,   39.5,   41.3,   41.2,   41.7,   41.8,   42.1,   41.9,   41.4,  999.0,   41.8,   41.7,   42.0,   42.2,   42.0,   41.8,   41.4,   41.4,   41.8,   41.6,   41.6,   41.3,   41.8,   41.6,   41.9,   41.7,   41.9,   41.3,   41.3
2000/11/14 08:50,  999.0,  999.0,  999.0,   -0.4,    4.3,    4.1,    2.6,    4.5,    4.2,    3.2,    2.0,    2.4,    3.8,    4.9,   23.3,   24.8,   26.2,  999.0,  999.0,   29.3,   30.4,   35.2,   36.6,   37.1,   38.1,   34.8,   38.8,   38.3,   39.9,   40.2,   41.0,   41.4,   41.1,   42.1,   41.2,   42.0,   42.3,   35.2,   31.3,   41.9,   30.9,   21.2,   42.4,   42.0,   39.2,   42.2,   24.2,   24.1,   38.0,   38.4,    9.0,   41.6,   21.6,   28.7,   35.1,   34.8,   41.5,   35.2
2000/11/14 09:00,  999.0,  999.0,  999.0,  999.0,  999.0,  999.0,  999.0,    4.0,    0.4,  -12.7,  -17.3,  999.0,  999.0,  999.0,   23.0,  999.0,  999.0,   22.7,   12.2,    0.4,   14.5,   27.9,   16.3,   29.7,   30.5,   31.9,  999.0,   27.3,   34.2,   35.0,   36.6,  999.0,  999.0,   38.3,   36.2,   33.8,   40.6,   40.5,   40.8,   41.3,   42.0,   42.1,   42.0,   42.5,   41.8,  999.0,   41.9,   41.5,   41.7,   41.5,   42.0,   41.6,   42.0,   41.6,   42.1,   41.5,  999.0,   42.3
2000/11/14 09:10,  999.0,  999.0,  999.0,  999.0,  999.0,    5.0,    4.5,    5.0,  999.0,  999.0,  999.0,    5.7,  999.0,    4.5,  999.0,  999.0,   35.6,   28.4,   34.3,   33.6,   27.4,   42.1,   37.3,   42.5,   33.8,   38.7,   35.5,   39.6,   36.5,  999.0,   42.3,   42.5,   17.8,   41.4,   -5.1,    8.2,   31.2,   20.4,  999.0,   41.2,   -0.9,   20.4,   20.3,   21.0,   27.6,   30.7,   41.3,   41.9,   42.0,   42.3,   20.8,   20.9,   41.9,   41.7,  999.0,   27.7,   27.6,   41.7
2000/11/14 09:20,   37.0,  999.0,  999.0,  999.0,  999.0,    5.8,    5.1,    6.1,    5.3,    4.3,    1.7,  999.0,   23.8,  999.0,   32.1,   35.5,   40.5,   31.3,   37.7,   34.6,   34.6,   30.6,   38.5,   41.6,   41.5,   40.8,   41.2,   42.4,   41.9,   42.2,   42.3,   42.1,   41.6,  999.0,    9.7,   20.4,    9.9,   28.0,   41.6,   27.6,   13.5,   31.3,   28.0,   42.6,   42.1,   20.7,   27.9,   13.4,   31.0,   20.8,   20.8,   20.5,   20.8,   42.0,   41.4,  999.0,   41.6,   -0.8
2000/11/14 09:30,   19.1,  999.0,  999.0,  999.0,  999.0,  999.0,   12.5,   12.2,   14.8,   13.1,    9.0,   10.0,  999.0,  999.0,   42.5,  999.0,   41.9,   42.1,   41.7,   41.8,   41.7,   41.9,   41.7,   41.7,   41.3,   42.4,   42.0,   41.4,   41.9,   41.8,  999.0,   41.7,   42.0,   41.6,   41.6,   41.7,   42.0,   41.6,  999.0,   41.8,   41.8,   41.7,   42.0,   42.1,   42.0,   41.7,  999.0,  999.0,  999.0,  999.0,  999.0,  999.0,  999.0,  -22.9,  -42.2,  999.0,  -21.0,  -21.3
2000/11/14 09:40,  999.0,  999.0,  999.0,  999.0,  999.0,  999.0,  999.0,    5.1,    4.8,    4.1,    2.0,    0.6,   -1.2,  999.0,  999.0,  999.0,    6.0,    9.6,   -2.8,  -19.0,    0.9,    0.8,    0.9,    0.7,    1.2,    0.7,    1.6,  999.0,    0.3,  999.0,  999.0,  999.0,    0.5,  -41.7,  -40.4,  -19.2,  -38.6,  -25.0,  -22.7,    8.0,    3.5,   11.6,   -4.3,  999.0,   13.9,   15.4,   16.4,   17.2,  999.0,  999.0,  999.0,  999.0,  999.0,   -8.8,  999.0,  -20.9,  -24.9,  -41.4
2000/11/14 09:50,  999.0,  999.0,  999.0,  999.0,  999.0,  999.0,  999.0,    3.8,    2.8,    4.6,    1.2,   -0.8,   -2.0,   -1.2,  999.0,  999.0,  999.0,  999.0,  999.0,  999.0,    0.9,    0.4,    0.3,    0.7,    1.0,    0.5,    0.6,    1.0,    1.3,    0.7,    0.7,    1.0,    1.1,    0.6,    1.0,    0.9,  999.0,  999.0,  999.0,  999.0,  999.0,  999.0,  999.0,  999.0,  999.0,  999.0,  999.0,  999.0,  999.0,  999.0,  999.0,  999.0,  999.0,  999.0,  999.0,  999.0,  999.0,  999.0
2000/11/14 10:00,  999.0,  999.0,  999.0,  999.0,  999.0,  999.0,  999.0,    4.0,    3.5,    2.6,    0.8,    0.0,   -0.4,  999.0,  999.0,  999.0,  999.0,  -14.8,  -12.5,  -16.5,  -17.3,   -2.9,    1.1,    0.8,    1.1,    0.7,    0.7,    0.9,    0.6,    0.5,    1.1,    1.0,  999.0,    1.1,  999.0,  999.0,    0.9,  999.0,    0.8,  999.0,    1.0,    1.2,    1.5,  999.0,  999.0,  999.0,  999.0,  999.0,  999.0,  999.0,  999.0,  999.0,  999.0,  999.0,  999.0,  999.0,  999.0,  999.0
2000/11/14 10:10,  999.0,  999.0,  999.0,  999.0,  999.0,    2.6,    3.2,    3.7,    3.6,    3.8,    2.2,    2.0,    1.7,  999.0,  999.0,   -2.7,   -4.1,   -5.6,   -6.6,   -6.2,   11.3,   10.1,  999.0,    8.0,    6.3,    5.7,    2.4,    0.9,    2.3,    1.9,    1.0,    0.7,    0.9,    0.6,  999.0,    0.9,    1.0,    0.3,  999.0,  999.0,  999.0,  999.0,  999.0,    0.6,  999.0,    0.2,    0.4,  999.0,    0.5,    0.8,    1.3,  999.0,    1.0,    0.6,  999.0,  999.0,  999.0,  999.0
2000/11/14 10:20,  999.0,  999.0,  999.0,    3.9,    4.3,    4.7,    3.7,    4.3,    4.2,    2.9,    1.6,    3.0,    2.7,    2.0,  999.0,  999.0,  999.0,  999.0,  999.0,  999.0,  999.0,  999.0,  999.0,  999.0,  999.0,    2.7,    0.1,    0.8,    0.4,    0.5,  999.0,    1.1,    0.4,    0.7,    0.5,    0.3,    0.6,    0.6,    0.5,    0.7,  999.0,    0.9,    0.6,    0.3,    0.9,    0.6,    0.7,    0.8,    0.8,    0.4,    0.5,    1.5,    0.7,    0.6,    1.4,  999.0,  999.0,  999.0
2000/11/14 10:30,  999.0,  999.0,  999.0,  999.0,  999.0,  999.0,    6.0,    4.5,    2.8,    2.5,    2.4,    2.3,    1.6,   -0.2,  999.0,   -3.5,  999.0,   -5.5,   -7.1,  999.0,  999.0,  999.0,  999.0,  999.0,    0.7,    7.2,    1.3,    0.1,    0.8,    0.7,    0.9,    0.9,    0.8,    0.9,    0.8,    0.7,    0.8,    0.7,    0.9,    0.6,    1.1,    1.2,    0.9,    0.8,    0.9,    0.7,    1.2,    0.6,    0.4,    0.7,    0.7,    0.7,    0.6,    1.2,    0.6,    0.8,   -0.2,  999.0
2000/11/14 10:40,  999.0,  999.0,  999.0,  999.0,  999.0,  999.0,  999.0,    5.3,    3.4,    2.7,    2.5,    3.1,    1.5,   -0.9,   -5.0,   -5.9,   -8.1,   -9.6,  999.0,  999.0,  999.0,  999.0,  999.0,    0.2,  999.0,    1.5,    1.0,  999.0,  999.0,    0.8,    0.8,    0.7,    0.6,  999.0,    0.5,    0.7,    1.0,    0.2,    0.8,    0.9,    0.6,    0.6,    0.6,    0.5,    0.7,    0.9,    0.7,    0.8,    1.0,    0.9,    0.8,    0.7,    1.0,    0.8,    1.2,    0.6,    0.8,    0.4
2000/11/14 10:50,  999.0,  999.0,    0.4,    0.8,    2.6,    4.0,    4.7,    3.5,    3.9,    3.7,    3.7,    3.5,    3.4,    3.0,    2.3,   -1.2,   -3.3,  999.0,   -5.5,   -3.1,  999.0,  999.0,  999.0,  999.0,    0.6,    0.4,  999.0,    2.3,    1.0,    0.4,    1.0,    0.9,    1.0,    0.8,    0.5,    0.8,    1.2,    0.9,    0.9,    0.9,    0.8,    0.7,    0.4,    0.9,    0.5,    0.7,    0.8,    0.7,    1.2,    0.7,    1.0,    0.9,    1.1,    0.5,    0.5,    0.5,    0.7,    0.4
2000/11/14 11:00,  999.0,  999.0,    1.4,    2.7,    2.2,    4.2,    4.0,    6.7,    5.5,    3.1,    2.7,    2.7,    1.9,    2.1,    1.0,   -0.5,   -0.7,   -3.2,  999.0,   -0.5,  999.0,  999.0,  999.0,  999.0,  999.0,  999.0,  999.0,    0.7,    0.6,    1.6,    0.8,    6.4,   12.2,    6.4,    0.9,    5.7,    5.5,    5.0,    5.0,    4.9,    0.7,    4.4,    3.9,    7.1,    0.8,    0.3,    0.3,    0.6,    0.4,    0.7,    1.2,    0.6,    0.4,    0.6,    1.0,    0.9,    0.9,    0.8
2000/11/14 11:10,  999.0,  999.0,  999.0,  999.0,  999.0,    3.6,    5.5,    4.6,    4.4,    3.5,    2.6,    2.8,    1.2,    0.2,   -0.7,   -3.6,   -5.1,   -7.7,  999.0,  999.0,  999.0,  -10.1,  -13.0,  999.0,  999.0,  999.0,    0.4,  999.0,    1.5,  999.0,    0.7,    0.8,  999.0,    0.5,    0.6,    0.6,    0.5,    0.6,    0.8,    0.6,    0.7,    0.6,    1.0,    1.1,    0.8,    0.7,    0.2,    0.7,    0.7,    0.8,    0.4,    0.6,    0.6,    0.8,    0.8,    1.0,    0.9,  999.0
2000/11/14 11:20,  999.0,  999.0,  999.0,  999.0,  999.0,    2.4,    3.0,    3.2,    3.1,    3.3,    3.2,    2.9,    1.9,    1.5,  999.0,   -6.2,   -6.4,   -7.7,   -8.5,  -10.1,  -11.2,  -15.6,  999.0,  999.0,  999.0,  999.0,  999.0,  999.0,  999.0,    0.8,    0.9,    0.8,    0.6,    1.1,    0.9,    0.8,    0.7,    0.8,    0.8,    0.6,    0.8,    0.6,    0.7,    0.5,    0.5,    0.9,    0.1,    0.7,    0.7,    1.2,    0.9,    0.7,    0.1,    0.8,    0.6,    0.4,    0.6,    0.8
2000/11/14 11:30,  999.0,  999.0,  999.0,  999.0,    1.9,    2.6,    2.1,    2.4,    2.8,    3.1,    3.4,    3.7,    3.4,    1.9,    4.5,   -2.2,   -1.8,   -1.6,   -2.1,   -2.1,   -6.9,   -9.8,  -14.8,  -16.8,  -19.4,  -18.9,  -20.1,  999.0,  999.0,    0.8,    0.9,    1.3,    0.6,    0.8,    0.7,    0.7,    1.1,    1.1,    0.9,    1.0,    1.0,    0.9,    0.9,    0.8,    0.6,    0.7,    0.6,    0.2,    0.5,    0.1,    0.7,    0.5,    0.9,    0.2,    0.9,    0.7,    0.6,    0.5
2000/11/14 11:40,  999.0,  999.0,  999.0,  999.0,    3.2,    1.0,   -0.3,    0.4,    1.9,    3.9,    3.1,    0.5,   -1.1,   -5.2,  999.0,   -6.5,   -8.4,   -9.6,  -10.7,  -12.3,  -14.3,  -17.2,  -18.7,  -19.4,  -18.7,  -18.9,  999.0,  999.0,  999.0,  999.0,  999.0,    0.4,    0.8,    0.8,    0.5,    0.7,    0.6,    0.8,    0.5,    0.3,    1.0,    0.8,   -0.0,    0.5,    0.5,    0.9,    0.8,    1.2,    0.8,    0.6,    0.4,    0.6,    0.5,    0.9,  999.0,    1.0,    0.6,    0.9
2000/11/14 11:50,  999.0,  999.0,   -0.1,    2.4,    0.7,   -0.4,    0.2,    2.7,    2.3,    2.2,    1.9,  999.0,    2.4,    1.4,   -1.1,   -2.6,   -3.9,   -4.2,   -6.9,  -10.7,  -15.8,  -19.9,  -19.8,  -19.4,  999.0,  -20.3,  -20.6,  999.0,  999.0,  999.0,  999.0,  999.0,    0.5,    0.4,    1.0,    0.8,  999.0,    0.7,  999.0,    0.3,    0.5,    0.6,    0.7,    1.0,    0.8,  999.0,    0.5,    0.2,    0.6,    0.5,    0.8,    0.9,    0.7,    0.7,    0.4,    0.9,    0.7,    0.9
2000/11/14 12:00,  999.0,  999.0,    5.4,    3.0,    1.5,    0.6,    1.3,    2.3,    1.8,    2.1,    2.7,    3.1,    3.0,    1.9,    0.3,   -1.9,   -3.4,   -1.7,   -9.1,  -11.1,  -15.3,  -18.5,  -18.8,  -18.7,  -17.7,  -19.8,  -18.5,  999.0,  999.0,  999.0,  999.0,  999.0,  999.0,    0.3,    0.1,  999.0,    0.8,    0.6,    0.8,    1.0,    0.2,    0.9,    0.9,    0.4,    0.5,    0.6,    0.6,    0.9,    1.0,  999.0,    0.4,    0.5,    0.7,    0.9,    0.5,    0.6,    0.9,    1.2
2000/11/14 12:10,  999.0,  999.0,    3.4,    3.5,    3.5,    4.0,    2.3,    3.0,    3.0,    3.2,    3.1,    3.0,    2.8,    3.1,    2.7,    1.5,    1.4,    1.7,    2.4,    3.3,    2.4,    1.5,  999.0,    0.3,  999.0,   -3.4,  999.0,  999.0,  999.0,  999.0,  999.0,  999.0,  999.0,   -6.6,  999.0,  999.0,   -0.3,   -0.5,   -0.9,  999.0,  999.0,   -0.8,   -0.4,   -1.3,  999.0,   -1.8,  999.0,   -0.5,   -0.3,  999.0,  999.0,  999.0,  999.0,  999.0,  999.0,  999.0,  999.0,  999.0
2000/11/14 12:20,  999.0,    0.7,    2.8,    1.8,    2.2,    2.5,    2.3,    1.5,    1.3,    1.7,    2.3,    2.1,    2.3,    1.6,    0.8,    0.8,    1.5,    1.7,    2.0,    2.8,    2.3,    2.5,    1.7,    0.7,   -1.1,   -2.8,   -3.9,   -6.8,  999.0,  999.0,  999.0,  -17.1,  -13.2,  -12.5,  -11.6,   -7.4,   -2.9,   -1.0,   -0.6,   -0.4,   -0.6,   -1.3,   -6.7,  -14.4,   -0.9,  -14.1,  -14.5,  -18.1,   -5.8,   -4.3,  -11.7,   -1.7,  -11.2,  -10.8,   -7.7,  -14.1,  -11.1,   -7.6
2000/11/14 12:30,  999.0,    0.4,    0.3,    1.2,    2.3,    2.2,    2.0,    3.4,    3.5,    3.0,    2.4,    3.6,    4.3,    4.1,    4.1,    3.9,    3.9,    4.2,    3.3,    2.7,    2.7,    2.6,    0.6,    1.2,    1.1,    1.2,    1.5,   -0.0,  999.0,  999.0,  -17.3,  -13.6,  -12.3,   -8.5,   -6.5,   -6.0,   -3.7,   -2.4,   -1.5,   -1.2,   -0.6,   -0.4,   -0.8,   -0.8,   -0.8,   -0.8,   -0.6,   -0.4,   -0.5,   -0.8,   -0.9,   -0.7,   -0.7,   -0.7,   -0.5,   -0.7,   -0.7,   -0.3
2000/11/14 12:40,  999.0,    1.6,    1.4,    2.3,    2.9,    2.2,    1.9,    2.7,    3.2,    3.4,    3.7,    3.6,    3.4,    2.9,    3.5,    4.3,    3.9,    2.9,    2.5,    3.2,    4.0,    2.4,    3.6,    1.8,   -0.4,   -0.5,    1.4,    2.3,  999.0,  999.0,  -17.3,  -15.9,  -13.9,  999.0,  999.0,   -8.9,   -7.4,   -5.5,   -3.9,   -1.7,   -0.9,   -1.2,   -0.8,   -0.9,   -1.2,   -0.7,   -0.2,   -0.8,   -0.9,   -1.0,   -1.0,   -0.3,   -1.0,   -1.0,   -0.6,   -0.8,   -0.5,   -0.4
2000/11/14 12:50,  999.0,    2.1,    1.7,    1.9,    2.5,    2.6,    3.7,    4.2,    4.1,    3.6,    3.5,    3.8,    3.8,    3.6,    3.2,    3.8,    2.3,    1.6,    1.5,    3.8,    3.7,    5.8,    5.9,    6.2,  999.0,    3.7,  999.0,  999.0,  999.0,  999.0,  999.0,  999.0,  999.0,  999.0,  999.0,   -7.2,   -2.3,   -0.6,   -0.4,   -0.7,   -0.6,   -0.5,   -0.6,   -1.0,   -0.6,   -0.8,   -0.4,   -0.3,   -0.4,   -0.1,   -0.5,   -0.5,   -0.5,   -0.7,   -0.6,   -0.7,   -0.1,   -1.3
2000/11/14 13:00,  999.0,    1.2,    1.4,    2.4,    2.9,    2.8,    3.1,    3.1,    3.1,    3.1,    2.4,    2.7,    3.1,    3.3,    3.2,    3.9,    4.1,    4.8,    4.0,    3.3,    4.2,    1.5,    2.2,    3.4,    1.7,    0.7,    2.7,    5.6,    8.2,  999.0,  999.0,  999.0,  999.0,  999.0,   -9.4,   -4.5,   -3.3,   -1.9,   -1.6,   -0.9,   -0.7,   -0.7,   -1.0,   -0.8,   -0.6,   -0.2,   -0.8,   -0.6,   -0.6,   -1.1,   -1.3,   -1.2,   -0.6,   -0.4,   -0.9,   -0.6,   -0.8,   -0.7
2000/11/14 13:10,  999.0,    0.7,    1.3,    2.6,    2.5,    3.2,    3.0,    2.9,    2.8,    2.5,    2.3,    3.0,    3.4,    3.9,    3.0,    3.1,    3.0,    2.2,    1.9,    1.6,    0.8,    2.0,    3.3,    3.4,    3.1,    4.8,    5.0,    3.8,    6.3,    8.6,   -1.5,  999.0,  999.0,  999.0,   -2.0,  999.0,  999.0,  999.0,   -0.6,  999.0,   -0.9,   -0.4,   -1.0,   -0.6,   -0.8,   -0.6,   -0.7,   -1.1,   -0.6,   -0.4,   -0.6,   -0.9,   -1.6,   -0.4,   -0.7,   -0.7,   -1.2,   -0.4
2000/11/14 13:20,  999.0,    0.9,    1.6,    2.6,    2.4,    2.7,    3.5,    3.5,    2.9,    3.9,    3.0,    2.7,    2.6,    1.8,    1.7,    2.7,    2.9,    2.6,    3.2,    3.4,    2.8,    1.8,    1.2,   -1.9,    1.3,   -0.8,    2.0,   -1.4,    0.4,   -1.1,    0.5,    4.5,  999.0,  999.0,  999.0,   -0.1,   -0.4,   -0.5,   -0.9,  999.0,   -0.9,   -1.3,   -0.8,   -0.4,   -0.5,   -0.9,   -0.5,   -0.6,   -0.6,   -0.9,  999.0,  999.0,   -1.1,   -0.9,   -0.7,   -0.9,   -0.5,   -0.1
2000/11/14 13:30,  999.0,    1.5,    1.6,    2.3,    2.4,    2.1,    2.6,    3.3,    3.1,    3.2,    3.3,    2.6,    2.8,    3.2,    3.2,    2.9,    1.9,    1.9,    2.1,    1.6,    1.4,    3.4,    3.7,    2.9,    2.7,    2.8,    2.3,    1.8,    0.9,   -0.8,  999.0,  999.0,  999.0,  999.0,  999.0,   -2.4,   -0.5,   -0.8,    0.2,   -0.7,   -1.1,   -0.7,   -0.8,   -0.7,   -0.8,   -1.2,   -1.1,   -0.8,  999.0,   -0.8,   -0.3,   -0.8,  999.0,   -0.9,   -0.7,   -0.8,   -0.5,   -1.0
2000/11/14 13:40,  999.0,    0.9,    1.4,    1.2,    1.7,    2.1,    3.4,    4.1,    4.7,    4.5,    4.4,    4.5,    3.5,    1.9,    2.0,    2.8,    2.7,    0.8,    1.3,    0.8,    1.5,    1.1,    1.0,    1.4,   -0.6,    1.0,    1.3,    2.4,    0.8,   -0.9,    1.4,  999.0,  999.0,  999.0,  999.0,   -4.7,  999.0,  999.0,   -0.6,   -0.9,   -0.3,   -0.9,   -0.7,   -1.0,   -1.2,   -0.3,   -0.8,   -0.9,   -0.9,   -0.7,   -1.0,   -0.7,   -1.0,   -0.9,   -0.3,   -1.0,   -0.7,  999.0
2000/11/14 13:50,  999.0,    1.0,    1.5,    2.5,    2.1,    2.6,    2.9,    3.1,    3.4,    3.8,    3.5,    2.6,    1.7,    1.8,    1.4,    1.2,    0.8,    1.4,    2.3,    1.2,    1.2,    0.7,    1.1,    2.0,    1.6,    2.1,    3.8,    1.8,    1.5,    0.9,    3.2,  999.0,  999.0,  999.0,  999.0,  999.0,  999.0,  999.0,  999.0,  999.0,  999.0,   -0.4,   -0.7,  999.0,   -0.9,   -1.1,   -0.6,   -0.8,   -1.1,   -0.9,   -0.9,   -0.7,   -0.3,   -0.8,   -1.0,   -1.0,   -0.6,   -0.9
2000/11/14 14:00,  999.0,    1.8,    2.4,    2.1,    1.3,    2.5,    4.7,    5.3,    4.7,    3.7,    3.6,    2.3,    2.2,    1.8,    1.7,    2.1,    3.0,    1.1,    0.9,    1.6,    2.1,    2.3,    1.2,    0.4,   -0.5,   -1.6,    1.9,    1.5,    3.2,    4.7,   10.0,  999.0,  999.0,  999.0,  999.0,  999.0,  999.0,  999.0,  999.0,  999.0,  999.0,  999.0,  999.0,   -0.3,   -0.5,   -0.4,   -1.3,   -0.8,   -0.8,   -0.5,   -0.7,   -0.9,   -0.6,   -0.8,   -0.9,   -0.3,   -0.8,   -0.7
2000/11/14 14:10,  999.0,  999.0,    0.2,    3.9,    4.5,    4.1,    5.4,    3.9,    3.3,    3.7,    3.0,    2.8,   -0.4,    0.5,    2.9,    3.5,    2.8,    1.9,    1.9,    2.0,    2.7,    1.9,    0.7,    1.5,    1.1,    1.3,    0.4,    1.2,    2.2,    3.2,    3.6,    4.7,  999.0,  999.0,  999.0,  999.0,  999.0,  999.0,  999.0,  999.0,  999.0,   -0.4,   -0.4,   -0.7,   -0.7,   -0.5,   -0.7,   -0.8,   -1.0,   -0.5,   -0.9,   -0.5,   -0.7,   -0.9,   -0.8,   -0.7,   -1.0,   -0.3
2000/11/14 14:20,  999.0,    3.3,    3.3,    5.2,    4.3,    4.3,    4.5,    3.9,    4.2,    4.4,    2.7,    1.4,    2.3,    2.8,    3.3,    3.2,    2.2,    2.0,    2.7,    4.5,    5.6,    6.6,    2.2,    4.6,    4.8,    3.9,   -2.6,    1.5,   -2.3,    2.3,    3.7,    9.3,  999.0,  999.0,   -0.4,  999.0,   -0.9,    0.3,   -0.1,   -1.6,   -1.1,   -0.9,   -0.8,   -0.6,   -0.4,   -1.1,  999.0,   -0.1,   -0.9,   -0.9,   -0.7,   -0.6,   -0.5,   -0.7,   -1.7,   -0.9,   -1.3,   -0.8
2000/11/14 14:30,  999.0,    3.8,    4.8,    3.7,    4.0,    2.9,    2.2,    2.7,    2.7,    2.6,    3.1,    3.4,    2.5,    2.0,    2.5,    2.3,    1.6,    1.6,    1.0,    1.5,    1.7,    0.4,    0.5,    1.3,    0.8,    0.9,    0.6,    2.6,   -4.5,   -6.6,  -10.1,   -8.6,  -12.6,  -11.6,   -9.1,   -5.9,   -8.3,  999.0,   -5.4,  999.0,   -0.4,   -0.8,   -0.6,   -0.4,  999.0,   -0.8,   -1.2,  999.0,   -0.6,    0.2,  999.0,    0.1,   42.3,   42.0,   40.6,   21.2,   31.3,   17.6
2000/11/14 14:40,  999.0,    3.4,    4.7,    4.2,    3.7,    3.7,    2.5,    2.9,    3.4,    3.6,    3.6,    3.6,    3.8,    3.1,    2.8,    3.5,    3.8,    3.3,  999.0,  999.0,    2.5,    2.9,    2.5,    4.6,  999.0,    4.7,  999.0,   -6.0,   -4.2,   -5.4,   -8.1,   -8.8,   -9.8,   -9.4,   -7.4,   -7.2,   -5.7,  999.0,   -5.1,  999.0,  -32.5,   -0.7,  999.0,   -1.0,  -19.3,  -38.9,  -40.3,  999.0,  -21.1,  -41.6,  -41.5,   14.0,   31.5,   14.0,  -21.2,   -0.2,   41.7,   21.2
2000/11/14 14:50,  999.0,    0.4,    1.8,    1.2,    1.0,    1.8,    3.4,    4.4,    5.6,    4.2,    2.3,    4.9,    2.9,   -0.0,    0.2,    1.2,    7.1,    1.4,   -2.9,    0.8,   -2.3,   -1.7,   -1.6,    2.4,   -0.3,    0.0,   -0.3,    1.7,   -3.4,   -3.5,    0.5,   -0.1,   -1.5,   -2.7,   -3.0,  999.0,  999.0,  -31.1,    2.1,   20.5,   21.3,  -41.2,    0.8,  999.0,   11.6,   41.6,    7.0,  -21.3,  -12.9,    0.1,  -38.1,   21.5,    1.0,  -17.0,  -19.9,  -10.6,  -20.9,  999.0
2000/11/14 15:00,  999.0,    2.2,    3.4,    3.8,    2.7,    2.0,    2.4,    3.1,    4.4,    4.3,    4.8,    5.7,    6.6,    4.4,    3.4,    2.0,    3.3,   -2.2,   -4.0,   -3.0,   -0.8,   -0.4,   -2.9,   -2.6,   -3.8,   -5.1,   -2.2,   -1.0,   -0.2,    4.3,    3.9,    1.6,    1.0,   -0.1,    0.8,    3.3,   -4.8,  -20.8,  -22.9,   -7.6,  -10.6,    0.3,    1.0,  999.0,  999.0,  999.0,  999.0,  -23.1,  999.0,  -34.1,  999.0,  -42.0,  999.0,  -42.2,  -42.3,  999.0,  -42.3,  -41.8
2000/11/14 15:10,  999.0,    5.4,    3.3,    1.2,    0.3,    4.9,    4.6,    6.5,    7.6,    8.7,    8.6,    8.7,    7.3,    6.8,    5.7,    4.9,    4.5,    5.3,   14.2,   12.5,    3.0,   -0.4,    1.9,    4.1,    6.3,    4.9,    3.6,    5.7,    4.0,    7.0,    2.9,    3.8,    3.1,    2.2,    2.6,    0.5,    3.3,    2.5,  999.0,   -1.2,  999.0,  999.0,  999.0,  999.0,  999.0,  999.0,  999.0,  999.0,  -38.9,  999.0,  -41.8,  999.0,  -42.1,  999.0,  -42.1,  -41.9,  -42.4,  999.0
2000/11/14 15:20,  999.0,    4.0,    5.1,    4.6,    6.3,    5.8,    5.5,    5.8,    6.1,    6.4,    8.3,   10.1,    9.0,    8.9,   11.1,    9.8,   10.4,   10.3,   10.2,   10.7,   12.9,   12.4,   13.2,    8.4,    8.3,    9.4,    7.7,    5.8,    3.2,   -0.3,   -6.6,   -0.0,    1.9,   -0.6,   -3.5,   -2.1,    3.6,   -7.8,   -3.4,   -0.9,  999.0,  999.0,  999.0,  999.0,  999.0,  999.0,  999.0,  999.0,  999.0,  999.0,  999.0,   -2.4,   -2.8,   -2.7,  999.0,  999.0,   -4.0,   -2.6
2000/11/14 15:30,  999.0,  999.0,  999.0,  999.0,  999.0,  999.0,   10.0,    8.5,    4.6,    1.4,   -0.6,    3.1,    5.3,    5.5,    8.2,   10.7,   11.1,   10.9,   10.3,   10.4,   10.6,   12.0,   11.1,   10.5,   13.8,   15.4,   15.5,    6.0,   17.4,    4.8,    3.4,  999.0,   -4.1,  -11.2,   -1.2,    5.1,    5.7,    7.2,    0.4,    0.8,  999.0,  999.0,  999.0,  999.0,  999.0,  999.0,  999.0,   -1.8,  999.0,  999.0,   -0.7,  999.0,   -0.2,  999.0,   -1.1,   -0.5,  999.0,    0.1
2000/11/14 15:40,  999.0,    2.7,    4.7,    5.8,    6.8,    6.9,    8.0,    4.3,    8.4,    7.6,    7.0,    6.1,    7.0,    7.9,    8.1,    7.6,    7.3,    7.6,    8.1,    8.5,    6.2,    5.7,    3.9,    5.5,    6.7,    1.3,   -0.9,    0.6,   -8.1,    0.6,   -1.6,   -1.7,    2.4,   -5.4,   -3.2,   -5.7,   -7.9,  -10.8,  -14.0,  -40.9,  999.0,  -31.4,  -19.6,  -15.7,  -10.9,  -10.0,  -11.1,  -10.1,  -10.4,  -10.5,   -6.0,   -6.1,   -5.0,   -4.5,   -6.1,   -5.3,   -3.7,   -2.3
2000/11/14 15:50,  999.0,    6.3,    8.2,    7.0,    6.1,    7.5,    6.3,    6.7,    9.7,    8.5,    8.3,    8.5,    8.5,    7.5,    6.2,    4.4,    5.6,   -1.7,   -1.0,   -1.4,   -4.4,   -1.6,    0.0,    0.4,   -4.2,   -4.7,   -5.2,   -5.7,   -5.2,   -3.9,   -4.6,   -5.3,   -6.9,   -7.9,   -9.5,   -6.6,   -5.8,   -5.0,   -2.2,   -0.8,    3.1,    5.9,    7.8,   10.3,   12.7,   15.2,    5.3,    9.4,    5.2,    0.4,    6.2,    2.1,    1.9,    2.1,    3.6,    2.5,   -0.8,   -1.4
2000/11/14 16:00,  999.0,    4.1,    5.7,    5.4,    6.4,    6.7,    6.9,    7.2,    7.8,    8.4,    8.3,    7.2,    5.9,    4.5,    3.7,    3.6,    3.3,    3.8,    4.9,    6.1,    6.6,    7.5,    5.8,    4.8,    4.5,    4.7,    6.3,    7.9,    9.0,    9.6,    9.0,    7.3,    6.8,    7.1,    6.0,    6.9,    8.8,   11.7,   11.9,    9.5,   10.4,    9.5,    9.9,    6.7,    7.8,   10.4,   11.5,   11.9,   12.3,    8.6,   10.0,    7.5,    5.1,    3.4,    2.0,    1.2,   -1.3,   -2.1
2000/11/14 16:10,  999.0,    7.1,    7.9,    7.5,    7.1,    7.3,    7.0,    6.8,    6.9,    6.8,    6.7,    6.5,    6.3,    5.1,    3.9,    2.5,    5.6,    5.7,    3.5,    4.0,    4.8,    4.9,    4.0,    4.4,    3.6,    5.0,    3.1,    3.4,    6.9,    9.7,   10.1,   11.8,   13.4,   14.3,   11.9,   13.0,   11.2,    9.2,    7.5,    8.2,    7.1,    7.1,    7.8,    5.5,    6.7,    6.0,   11.0,   14.0,   11.7,    9.6,   10.6,   10.9,    9.8,    9.7,    0.3,    1.2,   17.2,   18.8
2000/11/14 16:20,  999.0,    6.0,    6.7,    7.3,    8.1,    7.2,    7.0,    7.1,    7.6,    7.7,    7.4,    5.5,    3.6,    2.6,    2.5,    2.8,    2.9,    3.8,    5.2,    4.1,    4.4,    3.5,    4.2,    5.2,    6.5,    7.9,    8.2,    6.5,    8.6,    9.6,    9.3,    8.0,    5.9,    3.1,    2.8,    2.0,    2.6,    0.7,    0.8,    0.8,    1.6,    0.2,    0.1,    1.8,    4.1,    4.2,    5.2,   -3.4,   -7.5,   -6.6,   -6.1,   -0.8,   -0.8,    0.1,    0.6,   -0.1,    0.1,    2.9
2000/11/14 16:30,  999.0,    5.4,    6.1,    6.2,    5.6,    6.9,    7.6,    7.7,   10.1,   11.0,   11.3,   10.3,    9.0,    7.5,    7.1,    6.8,    6.2,    5.6,    3.4,    1.4,    1.0,    0.5,    0.4,    1.1,    1.7,    2.1,    2.3,    1.5,    1.6,    2.7,    4.5,    3.7,    3.5,    6.0,    6.5,    7.0,    6.6,    5.9,    6.3,    6.3,    5.6,    5.0,    4.2,    3.7,    3.7,    3.6,    1.9,    2.0,   -0.1,   -1.4,   -2.1,   -0.5,   -1.2,   -3.4,   -6.6,   -8.0,   -8.8,   -9.9
2000/11/14 16:40,  999.0,    4.2,    4.8,    4.7,    6.1,    4.0,    4.8,    5.1,    5.6,    6.7,    7.4,    7.5,    7.8,    9.1,   10.4,   10.7,    9.6,   10.3,   11.0,    5.5,    6.0,    6.2,    6.5,    6.0,    3.4,    2.7,    3.8,    4.4,    2.7,    2.7,    2.3,    3.2,    3.7,    5.8,    4.9,    2.2,    1.9,    1.8,    2.1,    2.0,    1.2,    0.6,    0.5,   -0.2,   -0.6,   -1.2,   -1.5,   -2.2,   -2.3,   -1.9,   -2.4,   -1.8,   -1.7,   -1.5,   -1.9,   -3.5,   -3.8,   -5.7
2000/11/14 16:50,  999.0,    1.9,    5.1,    5.5,    5.2,    5.5,    5.4,    5.3,    5.6,    5.7,    5.6,    5.6,    6.1,    6.4,    6.0,    5.4,    4.5,    3.6,    3.4,    3.3,    3.8,    3.6,    3.2,    3.6,    3.6,    3.2,    2.4,    3.4,    4.0,    4.8,    5.8,    7.6,    8.2,    9.3,   10.7,   11.1,   11.8,   13.5,   13.0,   12.0,   11.4,    9.6,    7.5,    5.1,    3.7,    2.0,    1.0,    0.1,   -1.8,   -3.5,   -4.4,   -3.8,   -3.1,   -2.8,   -2.3,   -2.4,   -2.3,   -1.9
2000/11/14 17:00,  999.0,    0.2,    2.6,    3.7,    4.1,    4.3,    4.3,    4.2,    3.6,    4.0,    4.4,    4.4,    4.6,    4.7,    4.5,    4.9,    5.0,    4.2,    3.6,    3.6,    3.4,    2.9,    1.8,    1.4,    1.7,    2.5,    3.1,    3.8,    4.3,    5.3,    5.9,    6.6,    7.2,    7.3,    7.2,    6.8,    6.1,    6.2,    6.0,    6.0,    6.2,    5.8,    5.7,    6.0,    5.7,    5.2,    4.6,    3.7,    2.9,    2.7,    2.0,    1.0,   -0.1,   -0.1,    0.3,    0.3,   -3.1,   -3.2
2000/11/14 17:10,  999.0,    0.6,    1.5,    2.2,    3.5,    4.1,    3.7,    3.5,    3.4,    3.6,    3.7,    3.5,    3.3,    3.3,    3.5,    3.5,    3.6,    3.6,    3.2,    3.0,    3.1,    3.2,    2.4,    1.7,    0.7,    0.5,    1.2,    1.8,    1.8,    1.7,    2.3,    3.8,    4.8,    5.6,    6.2,    5.8,    5.5,    4.4,    3.0,    2.1,    2.2,    2.2,    2.0,    2.0,    1.7,    1.1,    0.4,   -0.7,   -1.3,   -1.9,   -2.3,   -3.0,   -2.9,   -2.5,   -1.1,   -1.2,   -1.6,   -2.1
2000/11/14 17:20,  999.0,   -0.8,    0.8,    1.5,    2.1,    2.8,    3.7,    4.0,    3.5,    4.0,    4.6,    3.0,    2.6,    2.6,    2.3,    2.1,    1.9,    1.8,    2.1,    2.4,    2.8,    3.1,    2.8,    1.9,    1.4,    0.7,    1.8,    1.8,    2.1,    2.8,    4.6,    5.4,    5.6,    5.3,    5.1,    5.4,    4.9,    4.2,    4.3,    4.6,    4.3,    3.6,    2.2,    0.5,   -1.0,   -2.4,   -3.5,   -3.6,   -3.5,   -4.4,   -4.0,   -4.2,   -5.6,   -6.5,   -6.5,   -5.3,   -5.4,   -5.9
2000/11/14 17:30,  999.0,   -0.1,    1.7,    1.5,    3.0,    2.5,    4.4,    4.4,    3.9,    4.2,    5.0,    5.6,    5.9,    6.0,    5.8,    5.6,    5.5,    5.2,    5.1,    4.6,    5.4,    5.3,    5.5,    4.5,    3.6,    2.9,    2.8,    5.8,    8.1,    5.0,    6.1,    6.5,    6.6,    7.4,    9.1,    9.4,   11.7,   11.8,   11.1,    8.4,    4.9,    0.3,   -1.7,   -3.8,   -5.2,   -5.8,   -6.8,   -7.1,   -7.2,   -7.9,   -8.3,   -8.3,   -8.8,   -9.4,  -10.1,  -10.1,  -10.5,  -10.1
2000/11/14 17:40,  999.0,    0.4,    1.2,    2.2,    3.5,    3.8,    5.1,    5.2,    4.1,    4.8,    5.4,    4.4,    5.6,    4.6,    4.8,    4.8,    4.2,    5.0,    5.2,    5.8,    8.4,   12.2,   15.2,   14.8,   13.8,   11.6,    9.6,    8.2,   10.4,    9.3,    5.3,    6.3,    8.6,    8.4,    8.8,    8.3,    8.3,    7.6,    5.9,    4.2,    2.4,    1.0,    0.4,   -0.7,   -3.2,   -5.2,   -7.0,   -9.3,  -10.4,  -10.7,  -10.4,   -9.8,   -8.6,   -8.7,   -8.5,   -9.0,   -9.5,   -9.7
2000/11/14 17:50,  999.0,   -0.6,    0.2,    0.6,    0.8,    2.3,    3.5,    4.5,    4.3,    4.6,    5.0,    4.4,    6.0,    4.8,    4.4,    3.3,    4.9,    6.3,    5.6,    6.0,    5.4,    5.8,    5.1,    5.9,    5.0,    5.5,    6.2,    5.2,    6.3,    4.8,    4.6,    4.4,    4.6,    5.4,    5.4,    5.5,    6.0,    5.0,    3.5,    2.3,   -2.3,    1.1,   -3.6,   -2.8,   -3.8,   -4.7,   -5.6,   -6.9,   -7.7,   -8.9,   -9.8,  -10.1,   -9.9,  -10.4,  -10.4,  -11.2,  -11.3,  -11.4
2000/11/14 18:00,  999.0,  999.0,  999.0,    2.1,   -2.1,    1.6,    3.4,    3.8,    4.7,    5.0,    4.2,    4.5,    5.5,    6.3,    5.9,    6.4,    7.2,    6.9,    7.3,    7.5,    7.7,    8.6,    6.9,    7.8,    8.2,    6.6,    6.3,    5.9,    5.7,    6.8,    5.7,    5.1,    3.3,    1.6,    2.1,    2.2,    2.0,    1.2,   -1.2,   -2.7,   -2.6,   -3.3,   -3.8,   -3.2,   -5.2,   -6.6,   -7.9,   -9.2,   -9.3,   -9.6,   -9.6,  -10.4,  -10.6,  -11.0,  -11.3,  -10.4,   -9.9,   -8.8
2000/11/14 18:10,  999.0,   -3.0,   -2.1,   -1.0,    0.7,    2.7,   -1.0,   -3.5,    3.1,   -3.5,   -3.9,   -3.6,   -3.2,   -3.5,   -3.6,   -3.0,   -2.9,   -3.6,   -3.6,   -2.9,   -2.2,   -1.6,   -1.8,   -0.8,    0.9,    0.9,    1.4,    0.3,    0.7,    1.6,    1.6,    1.1,    1.0,    1.2,    1.0,    0.7,   -0.1,   -1.5,   -3.6,   -4.6,   -5.4,   -5.2,   -5.2,   -6.2,   -6.2,   -5.2,   -5.8,   -6.6,   -7.7,   -8.2,   -8.7,   -8.4,   -8.9,   -8.9,   -7.9,   -6.7,   -7.2,   -6.0
2000/11/14 18:20,  999.0,   -3.1,   -0.4,   -0.2,   -2.0,    0.8,   -2.8,   -7.8,   -6.0,    0.6,    4.3,    3.3,    2.5,    2.3,    2.4,    1.6,    2.0,    1.1,    0.8,    1.0,    0.6,    0.7,    0.3,   -0.2,    0.1,    1.1,    1.8,    1.7,    1.5,    1.4,    1.3,    2.1,    1.8,    1.8,    1.6,    1.3,    0.3,   -1.6,   -4.7,   -6.5,   -6.6,   -5.1,   -6.3,   -7.8,   -7.4,   -7.7,   -9.0,   -9.4,   -7.6,   -6.5,   -6.0,   -6.0,   -5.9,   -5.8,   -5.9,   -6.3,   -6.5,   -7.1
2000/11/14 18:30,  999.0,  -18.1,   -9.0,   -7.4,   -1.7,   -0.7,   -1.4,   -0.6,    2.4,    3.5,    3.1,    3.2,    3.0,    2.4,    2.1,    2.4,    2.1,    2.1,    1.5,    0.4,    0.7,    0.2,    0.0,    0.6,    1.1,    2.2,    2.2,    1.6,    1.2,    0.6,    1.0,    1.9,    1.6,    1.7,    1.0,    0.6,   -1.3,   -3.7,   -6.6,   -8.9,   -8.2,   -7.2,   -5.6,   -8.0,   -7.9,   -7.4,   -7.0,   -7.0,   -7.2,   -6.6,   -6.7,   -6.7,   -6.9,   -6.6,   -6.4,   -5.9,   -6.3,   -7.2
2000/11/14 18:40,  999.0,  999.0,  999.0,  999.0,  999.0,  999.0,  999.0,  999.0,   -6.9,  -13.1,  -10.2,   -0.0,  999.0,    3.5,    2.6,    0.3,    0.5,    0.7,    0.5,   -5.1,   -4.0,   -2.8,   -2.0,   -1.8,   -1.3,   -0.6,   -0.0,    0.3,   -0.8,    0.1,    0.0,    0.1,   -0.8,   -1.7,   -2.1,   -3.5,   -5.2,   -7.4,   -9.1,   -9.5,   -8.2,   -8.4,  -11.0,   -8.1,   -6.9,   -7.0,   -7.9,   -7.9,   -7.9,   -8.5,   -9.3,   -8.8,   -7.5,   -6.8,   -6.5,   -6.3,   -7.3,   -7.5
2000/11/14 18:50,  999.0,  999.0,  999.0,    0.9,  999.0,  999.0,  999.0,    7.4,    0.6,    1.2,    1.8,    3.0,    2.7,    2.1,    2.7,    3.3,    3.2,    2.3,    1.8,    1.7,    1.8,    1.6,    1.5,    1.4,    2.4,    2.9,    2.5,    1.3,    1.0,    1.8,    1.4,    0.7,    0.2,   -1.5,   -2.7,   -4.7,   -5.6,   -5.9,   -5.9,   -6.3,   -6.7,   -5.7,   -7.3,   -7.5,   -8.1,   -8.5,   -9.0,  -10.1,  -11.0,  -11.3,   -9.9,   -9.0,   -7.6,   -6.1,   -5.3,   -5.3,   -5.2,   -4.9
2000/11/14 19:00,  999.0,  -20.5,  -15.4,   -7.7,    0.3,    3.3,    3.6,    2.0,    2.1,    2.3,    2.5,    2.8,    2.8,    2.7,    2.8,    3.6,    3.8,    3.3,    2.8,    2.2,    2.1,    2.3,    1.9,    1.8,    2.7,    2.5,    2.3,    1.9,    1.9,    2.0,    1.2,    0.3,   -0.8,   -2.3,   -3.7,   -5.5,   -7.1,   -7.9,   -7.9,   -7.6,   -6.5,   -3.3,  999.0,   -5.2,   -8.5,   -9.4,  -10.7,  -11.3,  -10.9,  -10.1,   -8.8,   -7.7,   -6.9,   -6.4,   -6.1,   -5.1,   -4.3,   -3.6
2000/11/14 19:10,  999.0,  -19.2,  -18.0,  -12.0,   -6.4,   -2.7,   -1.8,   -0.8,   -0.4,    0.7,    1.9,    2.9,    2.9,    3.1,    2.7,    3.3,    3.2,    2.9,    2.7,    3.1,    3.1,    3.5,    3.5,    3.1,    3.6,    4.8,    5.3,    4.6,    4.1,    4.7,    5.1,    4.2,    2.9,    1.5,   -0.2,   -1.8,   -3.9,   -5.2,   -5.4,   -5.9,   -6.0,   -4.8,  999.0,   -6.3,   -7.2,   -7.4,   -7.5,   -8.2,   -8.9,  -10.0,  -10.7,  -10.8,  -10.0,   -9.0,   -9.1,   -9.0,   -9.6,   -9.9
2000/11/14 19:20,  999.0,  999.0,    1.4,    1.3,    0.5,    0.1,   -0.6,   -1.1,   -0.6,    1.3,    2.0,    2.0,    2.8,    3.0,    2.5,    2.6,    3.3,    3.1,    2.3,    2.5,    2.9,    3.4,    3.7,    3.7,    3.3,    4.0,    4.8,    4.7,    4.6,    4.7,    5.3,    5.5,    5.2,    4.1,    2.3,   -1.4,   -1.0,   -2.2,   -3.8,   -4.6,   -4.6,   -5.7,   -6.2,   -8.3,   -8.3,   -8.0,   -7.6,   -7.3,   -7.1,   -7.6,   -8.6,  -10.2,  -10.4,   -9.4,   -8.3,   -7.9,   -7.4,   -7.8
2000/11/14 19:30,  999.0,   -0.0,    0.5,    0.5,    0.5,   -0.7,   -1.1,   -1.0,   -0.6,   -0.5,   -0.2,    0.5,    0.9,    1.0,    0.9,    0.9,    1.3,    2.0,    1.6,    1.4,    2.4,    2.9,    2.9,    2.9,    3.1,    2.4,    2.6,    2.7,    2.3,    2.1,    2.2,    3.1,    3.4,    2.8,    2.2,   -0.2,   -1.7,   -3.6,   -5.0,   -4.6,   -5.1,   -4.6,   -7.1,   -7.2,   -7.5,   -8.2,   -8.3,   -7.9,   -7.0,   -6.2,   -6.7,   -7.6,   -8.5,   -9.2,   -8.6,   -7.4,   -6.8,   -5.9
2000/11/14 19:40,  999.0,    0.7,    2.9,    1.9,    0.0,   -1.0,   -1.2,   -0.3,    1.0,    0.7,    0.7,    1.0,    1.5,    1.3,    1.1,    1.6,    1.4,    1.3,    2.0,    2.5,    2.1,    2.5,    2.2,    1.4,    1.0,    0.8,    0.7,    0.9,    0.7,    0.9,    1.3,    1.6,    1.9,    2.3,    1.7,    0.8,   -0.8,   -2.7,   -3.8,   -3.8,   -3.1,   -2.1,   -3.4,   -4.7,   -5.8,   -5.8,   -6.0,   -6.8,   -7.7,   -8.9,   -9.3,   -8.9,   -7.7,   -6.9,   -6.1,   -6.1,   -5.5,   -5.4
2000/11/14 19:50,  999.0,  -16.7,  -11.8,   -7.3,   -4.7,   -3.1,   -0.7,    1.1,    0.9,    1.5,    1.7,    1.8,    2.1,    1.7,    1.7,    1.7,    1.0,    1.7,    2.2,    2.0,    1.8,    1.5,    0.9,    0.5,    0.2,    0.3,    0.4,    0.4,    0.2,    0.2,    0.3,    0.5,    1.1,    1.3,    1.0,    0.1,   -0.8,   -3.6,   -4.7,   -4.2,   -3.9,   -2.9,   -3.3,   -5.6,   -5.8,   -5.8,   -6.7,   -6.5,   -6.9,   -6.8,   -6.2,   -4.8,   -4.4,   -3.6,   -3.9,   -3.9,   -3.7,   -4.0
2000/11/14 20:00,  999.0,  999.0,  -12.8,   -9.9,   -8.7,   -5.7,   -3.8,   -1.2,    0.8,    0.8,    0.5,    0.6,    1.3,    1.2,    1.9,    2.1,    2.4,    2.8,    3.6,    4.2,    4.1,    4.0,    4.0,    2.9,    3.0,    2.6,    1.5,    1.1,    1.2,    2.3,    1.8,    1.5,    2.1,    2.3,    1.5,    1.6,   -0.1,   -2.7,   -3.5,   -4.1,   -3.9,   -4.6,   -6.2,   -8.0,   -7.9,   -6.7,   -5.6,   -5.6,   -6.4,   -7.3,   -7.1,   -8.0,   -8.9,   -8.9,   -9.3,   -7.6,   -6.2,   -6.2
2000/11/14 20:10,  999.0,   -0.3,   -1.4,   -2.2,   -4.1,   -4.7,   -5.5,   -4.1,   -0.9,    0.5,    0.7,    1.1,    1.4,    2.1,    1.7,    3.4,    1.0,    1.3,    2.4,    2.5,    2.8,    2.7,    3.1,    3.1,    2.8,    3.2,    2.6,    1.9,    1.9,    2.4,    2.1,    2.4,    2.5,    2.0,    1.1,   -0.7,   -1.6,   -1.8,   -3.0,   -4.7,   -6.1,   -8.0,   -9.1,   -7.9,   -7.5,   -7.3,   -6.1,   -6.2,   -6.7,   -6.5,   -6.6,   -6.6,   -6.7,   -7.0,   -7.4,   -8.0,   -9.2,   -5.7
2000/11/14 20:20,  999.0,   -1.2,   -1.4,   -3.2,   -4.3,   -3.2,   -2.7,   -2.2,   -0.0,    0.9,    0.6,    1.0,    1.6,    2.1,    2.0,    1.8,    1.8,    2.2,    1.8,    1.0,    1.6,    2.7,    2.9,    2.7,    2.5,    2.3,    1.4,    1.1,    1.1,    1.1,    1.1,    1.6,    1.6,    0.8,   -0.3,   -1.6,   -2.3,   -2.7,   -3.4,   -4.3,   -6.0,   -7.0,   -7.8,   -6.7,   -7.8,   -8.0,   -7.3,   -7.3,   -7.3,   -7.0,   -6.8,   -6.9,   -6.8,   -5.8,   -4.0,   -4.4,   -4.3,   -4.3
2000/11/14 20:30,  999.0,   -0.9,   -1.9,   -2.7,   -3.9,   -3.2,   -2.7,   -1.1,    0.3,    0.6,    0.7,    1.1,    1.5,    0.9,    0.4,    1.2,    1.8,    1.6,    1.2,    0.8,    1.3,    2.1,    2.4,    1.9,    1.1,    1.1,    0.9,    0.5,    0.3,    0.2,    1.3,    1.9,    2.4,    1.8,   -0.0,   -2.9,   -3.1,   -3.5,   -3.9,   -4.8,   -5.5,   -5.6,   -5.7,   -4.9,   -6.5,   -6.9,   -6.8,   -6.2,   -6.6,   -6.4,   -6.4,   -6.6,   -6.2,   -6.8,  999.0,  999.0,  999.0,  999.0
2000/11/14 20:40,  999.0,   -9.4,   -7.6,   -3.7,   -1.9,   -2.1,   -1.9,   -0.8,   -0.0,    0.5,    0.8,    1.7,    2.1,    1.6,    2.1,    2.3,    2.4,    4.7,    4.3,    2.6,    5.0,    2.5,    3.4,    3.1,  999.0,  999.0,  999.0,  999.0,  999.0,  999.0,  999.0,  999.0,  999.0,  999.0,  999.0,  999.0,  999.0,  999.0,  999.0,  999.0,  999.0,  999.0,  999.0,  999.0,  999.0,  999.0,  999.0,  999.0,  999.0,  999.0,  999.0,  999.0,  999.0,  999.0,  999.0,  999.0,  999.0,  999.0
2000/11/14 20:50,  999.0,  999.0,  999.0,  999.0,  999.0,  999.0,  999.0,    4.7,    5.8,  999.0,  999.0,    5.6,  999.0,    9.3,  999.0,  999.0,  999.0,  999.0,  999.0,  999.0,  999.0,  999.0,  999.0,  999.0,  999.0,  999.0,  999.0,  999.0,  999.0,  999.0,  999.0,  999.0,  999.0,  999.0,  999.0,  999.0,  999.0,  999.0,  999.0,  999.0,  999.0,  999.0,  999.0,  999.0,  999.0,  999.0,  999.0,  999.0,  999.0,  999.0,  999.0,  999.0,  999.0,  999.0,  999.0,  999.0,  999.0,  999.0
2000/11/14 21:00,  999.0,  999.0,  999.0,   -0.2,   -0.2,   -2.8,   -3.1,   -4.8,   -1.8,   -2.2,  999.0,   -1.0,    2.1,    2.1,    0.9,   -0.5,   -0.6,  -12.0,  999.0,   -9.5,  -12.1,  -11.7,   -7.4,  999.0,   -4.3,  999.0,  999.0,   -9.1,   -2.0,  -14.8,   -7.3,   -7.9,   -8.6,   -9.2,  -15.6,  -13.9,  -16.8,  -13.9,  -14.1,  -13.7,  -14.1,  -13.9,  -13.3,  -12.1,   -8.2,   -5.9,   -5.7,   -5.3,   -5.0,   -6.3,   -8.3,   -3.8,  -20.5,  999.0,  999.0,  999.0,  999.0,  999.0
2000/11/14 21:10,  999.0,    0.7,   -2.9,   -9.1,   -2.5,   -1.4,   -0.8,    0.9,   -4.8,   -3.5,   -2.9,   -3.3,   -5.6,   -6.2,   -8.8,   -9.2,   -6.6,   -8.1,   -6.7,   -7.7,   -9.1,   -5.7,   -4.7,   -6.7,   -6.2,   -6.2,   -7.1,   -6.5,   -4.4,   -3.8,   -3.6,   -2.3,   -1.8,   -3.8,   -5.4,    1.7,   -5.6,   -4.9,   -5.3,   -5.9,   -5.4,   -5.1,   -4.6,   -2.0,    1.9,    3.9,   10.9,   12.3,   13.0,   13.4,   15.0,   13.3,   11.5,  999.0,  999.0,  999.0,  999.0,  999.0
2000/11/14 21:20,  999.0,   -2.9,   -3.1,  -14.8,   -9.0,  -11.2,   -8.8,  -11.1,  -10.5,  -11.1,   -7.0,  -10.2,   -9.8,   -7.1,   -5.0,   -3.3,    0.3,   -3.9,   -1.1,   -1.1,    3.8,    1.6,    2.2,    1.5,    0.9,    0.3,    4.6,    5.9,    6.5,    4.5,    2.4,    4.7,    7.7,    4.3,    1.4,   -1.3,   -1.6,    0.1,   -0.0,   -2.1,   -3.4,   -6.7,   -2.2,    2.0,    3.1,    1.3,    1.0,    1.2,    1.4,    1.4,    0.9,    0.7,    0.4,    0.7,    1.2,    5.6,    5.7,    5.3
2000/11/14 21:30,  999.0,  999.0,  -17.2,  -22.6,  -19.6,  -17.6,  -25.7,  -20.3,  -20.5,  -17.8,  -17.8,  -16.8,  -16.1,  -13.3,   -8.0,   -3.1,   -2.6,    3.5,    6.7,    7.0,    7.5,    6.7,    6.2,    2.7,    1.3,    0.7,    5.1,    8.1,    8.3,   10.0,    9.9,   10.1,    8.8,    8.7,    5.4,    2.2,    2.1,    3.8,    5.3,    5.1,    4.6,  999.0,  999.0,    4.3,    4.4,   11.5,  999.0,  999.0,  999.0,  999.0,   10.3,    1.3,   -6.4,   -0.5,   -2.2,   -2.2,   -2.7,   12.8
2000/11/14 21:40,  999.0,   -2.5,  999.0,  999.0,   -8.7,   -9.2,  999.0,   -7.3,   -3.5,   -2.2,   -1.0,   -2.1,   -0.5,    1.4,    5.1,    6.9,   10.0,   21.3,  999.0,   21.3,   21.8,  999.0,   14.0,  999.0,  999.0,  999.0,  999.0,   19.1,  999.0,   -0.8,   -0.8,   -0.5,  999.0,   12.6,  999.0,    0.4,  999.0,  999.0,   -1.3,  999.0,  999.0,  999.0,  999.0,  999.0,  999.0,  999.0,  999.0,  999.0,  999.0,  999.0,  999.0,  999.0,  999.0,  999.0,  999.0,  999.0,  999.0,   12.4
2000/11/14 21:50,  999.0,   -3.8,   -1.7,  999.0,  999.0,  999.0,    1.0,    0.5,    0.8,   -0.3,   -0.3,    3.4,    2.8,    3.8,    2.9,    7.7,   14.1,   18.0,  999.0,  999.0,   11.2,   -3.8,  999.0,   18.5,  999.0,  999.0,  999.0,  -10.5,  999.0,  999.0,  999.0,  999.0,   -0.5,  999.0,  999.0,   -0.1,  999.0,  999.0,    5.5,  999.0,    2.9,    2.3,    1.4,    3.2,  999.0,  999.0,  999.0,  999.0,  999.0,  999.0,  999.0,  999.0,  999.0,  999.0,  999.0,  999.0,  999.0,  999.0
2000/11/14 22:00,  999.0,    3.1,    4.5,    2.2,   -4.2,   -0.6,   -1.1,   -0.8,   -4.0,    1.2,    2.0,   -1.5,    3.1,  999.0,  999.0,    1.3,   -4.7,  -12.7,   -5.9,   -8.1,  -10.3,  -11.5,  -10.4,  -16.8,  -15.2,  -13.1,  -12.0,  -10.8,   -9.1,   -6.9,   -5.9,   -4.5,   -5.9,   -3.7,   -1.2,    0.4,    1.4,    1.7,    2.1,    2.4,    2.4,    3.1,    7.4,   10.2,   10.4,   10.6,    9.1,    7.4,    6.7,    5.4,    9.3,    7.7,    7.4,  999.0,  999.0,  999.0,   10.7,  999.0
2000/11/14 22:10,  999.0,  999.0,    2.6,   -2.2,    0.4,    0.8,    0.1,   -0.3,    1.3,  -10.1,   -7.3,  999.0,  999.0,  999.0,  -13.4,   -9.7,  -12.6,  -12.4,  -16.6,  -19.9,  -18.1,  -25.9,  -20.0,  -23.8,  -24.0,  -23.3,  -22.5,  -22.6,  -10.3,  -12.4,  -10.8,   -8.6,   -6.2,   -3.2,   -3.0,   -7.9,  -15.7,  999.0,   -8.0,  -15.3,  -15.7,  999.0,  999.0,   -5.8,  999.0,    8.7,    8.0,    0.8,    0.0,    5.5,    2.2,    3.3,    2.3,  999.0,  999.0,  999.0,  999.0,  999.0
2000/11/14 22:20,  999.0,  999.0,  999.0,   -4.2,   -4.6,  -12.1,  -11.1,   -8.5,   -7.5,   -8.2,   -8.0,   -8.3,   -8.8,   -8.8,  999.0,  999.0,    1.1,    1.3,    0.7,  999.0,    1.5,   -2.0,   -0.1,  999.0,  999.0,  999.0,  999.0,  999.0,  999.0,  999.0,  999.0,  999.0,  999.0,  999.0,  999.0,   -1.6,   -1.4,   -3.3,  999.0,  999.0,  999.0,  999.0,  999.0,  999.0,  999.0,  999.0,  999.0,  999.0,  999.0,  999.0,   -5.7,   -5.0,   -4.8,   -4.5,   -5.0,   -4.5,   -3.9,   -4.7
2000/11/14 22:30,  999.0,    0.2,  999.0,   -1.4,   -1.1,   -0.3,   -1.9,   -1.1,    0.6,    1.5,    1.5,  999.0,  999.0,  999.0,    2.0,    1.9,    1.6,  999.0,  999.0,   -2.5,    1.4,  999.0,   -3.7,  999.0,  999.0,    2.7,    4.4,  999.0,  999.0,  999.0,  999.0,  999.0,  999.0,  999.0,  999.0,  999.0,  999.0,  999.0,  999.0,  999.0,  999.0,  999.0,  999.0,    7.0,  999.0,    7.6,    8.1,  999.0,  999.0,   -7.8,   -7.1,   -6.8,   -6.6,   -5.6,   -4.4,   -4.2,   -0.5,  999.0
2000/11/14 22:40,  999.0,    1.0,    3.1,    3.7,   -0.8,    0.1,   -1.2,   -1.3,   -1.3,    1.8,    2.4,    0.2,   -3.2,  999.0,    4.9,  999.0,    2.5,    3.2,    1.7,  999.0,    1.5,    3.1,    3.4,    4.3,    6.2,    7.3,    7.5,  999.0,  999.0,  999.0,  999.0,  999.0,    7.7,  999.0,  999.0,   12.7,  999.0,  999.0,  999.0,  999.0,  999.0,  999.0,  999.0,  999.0,  999.0,  999.0,  999.0,  999.0,   11.3,   11.3,   10.3,    9.7,    8.9,    5.5,   -3.0,   -1.5,    6.1,  999.0
2000/11/14 22:50,  999.0,    3.1,  999.0,    0.7,   -0.3,   -1.0,   -2.2,    0.1,   -0.1,    2.0,    2.0,   -0.7,    4.6,    1.0,    4.5,    7.2,  999.0,    1.0,  999.0,    2.4,    4.6,  999.0,    6.2,    6.5,    6.1,    4.1,  999.0,  999.0,  999.0,    9.7,   10.5,   10.5,   13.2,  999.0,  999.0,  999.0,  999.0,  999.0,  999.0,  999.0,  999.0,  999.0,  999.0,  999.0,  999.0,  999.0,  999.0,  999.0,  999.0,  999.0,  999.0,  999.0,  999.0,  999.0,  999.0,  999.0,  999.0,  999.0
2000/11/14 23:00,  999.0,    0.6,    2.1,    1.2,    0.9,    0.7,   -2.6,   -0.2,    0.7,    3.3,    2.0,    2.0,  999.0,   -2.0,    2.5,    3.0,    4.0,    4.7,    3.0,   -0.1,    7.6,  999.0,  999.0,  999.0,  999.0,  999.0,  999.0,  999.0,    7.5,  999.0,  999.0,  999.0,  999.0,  999.0,  999.0,  999.0,  999.0,  999.0,  999.0,  999.0,  999.0,  999.0,  999.0,  999.0,  999.0,  999.0,  999.0,  999.0,  999.0,  999.0,  999.0,  999.0,  999.0,  999.0,  999.0,  999.0,  999.0,  999.0
2000/11/14 23:10,  999.0,   -2.6,    2.2,    3.3,    1.8,   -0.3,    1.3,    2.0,    0.4,    3.1,    2.7,    2.5,    1.7,    2.3,    5.5,    6.7,    5.0,    6.9,    8.0,    7.2,    9.1,    5.7,   11.1,  999.0,  999.0,  999.0,  999.0,  999.0,  999.0,  999.0,   13.7,   12.6,  999.0,  999.0,  999.0,  999.0,  999.0,  999.0,   17.9,   17.5,  999.0,   16.7,  999.0,  999.0,  999.0,  999.0,  999.0,  999.0,  999.0,  999.0,  999.0,  999.0,  999.0,  999.0,    8.1,    7.1,  999.0,    7.0
2000/11/14 23:20,  999.0,   -2.9,    0.3,    0.8,    3.1,   -1.5,    1.7,    1.4,    3.0,    2.5,    2.0,    1.7,    4.7,    4.4,  999.0,    3.2,    3.9,    0.7,  999.0,  999.0,    3.7,  999.0,    5.0,    6.5,  999.0,  999.0,  999.0,  999.0,   19.6,  999.0,  999.0,  999.0,  999.0,  999.0,  999.0,  999.0,  999.0,   16.2,   17.0,  999.0,  999.0,  999.0,  999.0,  999.0,  999.0,  999.0,  999.0,  999.0,  999.0,  999.0,  999.0,  999.0,  999.0,  999.0,  999.0,  999.0,  999.0,  999.0
2000/11/14 23:30,  999.0,    6.3,    3.2,    1.3,    1.6,    0.3,    0.1,   -1.0,    1.3,    3.0,    1.5,    1.5,    5.0,    2.7,    6.5,    4.7,    5.5,  999.0,  999.0,  999.0,  999.0,  999.0,  999.0,   12.5,   13.2,  999.0,  999.0,  999.0,  999.0,   23.0,  999.0,   21.5,  999.0,  999.0,  999.0,  999.0,  999.0,  999.0,  999.0,  999.0,   14.2,  999.0,  999.0,  999.0,  999.0,  999.0,  999.0,  999.0,  999.0,  999.0,  999.0,  999.0,  999.0,  999.0,    7.5,    6.9,    6.7,    7.7
2000/11/14 23:40,  999.0,  999.0,    2.8,    4.1,    1.6,    2.2,    2.3,    2.1,    1.6,    1.5,    2.1,    1.0,    1.2,    1.5,    2.6,    1.9,    1.6,    4.8,    4.6,    4.2,    4.6,  999.0,  999.0,  999.0,  999.0,   12.2,   11.6,  999.0,  999.0,  999.0,  999.0,  999.0,  999.0,  999.0,  999.0,  999.0,  999.0,  999.0,  999.0,  999.0,  999.0,  999.0,  999.0,  999.0,  999.0,  999.0,  999.0,  999.0,  999.0,  999.0,  999.0,  999.0,  999.0,  999.0,    8.0,    7.6,    7.7,    7.4
2000/11/14 23:50,  999.0,    1.3,    5.6,    2.8,    2.7,    1.5,    4.9,    4.3,    7.6,    4.1,    2.8,    1.3,   -2.0,    0.0,    1.4,   -0.2,    0.8,    4.8,  999.0,  999.0,    4.0,  999.0,  999.0,  999.0,  999.0,  999.0,  999.0,  999.0,  999.0,  999.0,  999.0,  999.0,  999.0,  999.0,  999.0,  999.0,  999.0,  999.0,   18.0,  999.0,  999.0,  999.0,  999.0,  999.0,  999.0,  999.0,  999.0,  999.0,  999.0,  999.0,  999.0,  999.0,  999.0,  999.0,  999.0,  999.0,  999.0,    9.7
